| time (UTC) | temp F | wind direction | speed MPH | gust MPH | rain 1hr in | rain 24hr in | rain mn in | humidity % | barometer mb |
| 20260831014518 | 58 | 334 | 2.0 | 3.0 | 0.00 | 0.00 | 0.00 | 100 | 958.1 |
| 20260831014315 | 58 | 309 | 2.0 | 2.0 | 0.00 | 0.00 | 0.00 | 100 | 958.2 |
| 20260831014214 | 58 | 304 | 2.0 | 3.0 | 0.00 | 0.00 | 0.00 | 100 | 958.1 |
| 20260831014111 | 58 | 303 | 2.0 | 3.0 | 0.00 | 0.00 | 0.00 | 100 | 958.2 |
| 20260831013909 | 58 | 302 | 2.0 | 3.0 | 0.00 | 0.00 | 0.00 | 100 | 958.0 |
| 20260831013706 | 58 | 283 | 2.0 | 3.0 | 0.00 | 0.00 | 0.00 | 100 | 958.1 |
| 20260831013605 | 58 | 273 | 2.0 | 3.0 | 0.00 | 0.00 | 0.00 | 100 | 958.1 |
| 20260831013502 | 57 | 263 | 1.0 | 2.0 | 0.00 | 0.00 | 0.00 | 100 | 958.2 |
| 20260831013259 | 57 | 273 | 1.0 | 2.0 | 0.00 | 0.00 | 0.00 | 100 | 958.2 |
| 20260831013056 | 57 | 284 | 1.0 | 3.0 | 0.00 | 0.00 | 0.00 | 100 | 958.1 |
| 20260831012955 | 57 | 289 | 2.0 | 3.0 | 0.00 | 0.00 | 0.00 | 100 | 958.2 |
| 20260831012852 | 57 | 293 | 2.0 | 3.0 | 0.00 | 0.00 | 0.00 | 100 | 958.1 |
| 20260831012649 | 57 | 304 | 3.0 | 4.0 | 0.00 | 0.00 | 0.00 | 100 | 958.1 |
| 20260831012446 | 57 | 310 | 2.0 | 4.0 | 0.00 | 0.00 | 0.00 | 100 | 958.1 |
| 20260831012346 | 57 | 311 | 2.0 | 4.0 | 0.00 | 0.00 | 0.00 | 100 | 958.1 |
| 20260831012243 | 57 | 312 | 1.0 | 3.0 | 0.00 | 0.00 | 0.00 | 100 | 958.1 |
| 20260831012041 | 57 | 0 | 0.0 | 2.0 | 0.00 | 0.00 | 0.00 | 100 | 958.2 |
| 20260831011838 | 57 | 320 | 0.0 | 1.0 | 0.00 | 0.00 | 0.00 | 100 | 958.2 |
| 20260831011737 | 57 | 320 | 1.0 | 1.0 | 0.00 | 0.00 | 0.00 | 100 | 958.2 |
| 20260831011635 | 57 | 318 | 1.0 | 1.0 | 0.00 | 0.00 | 0.00 | 100 | 958.4 |
| 20260831011431 | 57 | 312 | 1.0 | 1.0 | 0.00 | 0.00 | 0.00 | 100 | 958.3 |
| 20260831011228 | 57 | 312 | 1.0 | 2.0 | 0.00 | 0.00 | 0.00 | 100 | 958.3 |
| 20260831011127 | 57 | 308 | 1.0 | 2.0 | 0.00 | 0.00 | 0.00 | 100 | 958.3 |
| 20260831011025 | 57 | 320 | 1.0 | 2.0 | 0.00 | 0.00 | 0.00 | 100 | 958.2 |
| 20260831010821 | 57 | 318 | 2.0 | 2.0 | 0.00 | 0.00 | 0.00 | 100 | 958.2 |
| 20260831010618 | 57 | 324 | 2.0 | 2.0 | 0.00 | 0.00 | 0.00 | 100 | 958.3 |
| 20260831010518 | 57 | 324 | 2.0 | 2.0 | 0.00 | 0.00 | 0.00 | 100 | 958.2 |
| 20260831010416 | 57 | 329 | 2.0 | 2.0 | 0.00 | 0.00 | 0.00 | 100 | 958.3 |
| 20260831010213 | 57 | 330 | 2.0 | 2.0 | 0.00 | 0.00 | 0.00 | 100 | 958.3 |
| 20260831010010 | 57 | 332 | 2.0 | 2.0 | 0.00 | 0.00 | 0.00 | 100 | 958.4 |
| 20260831005806 | 57 | 342 | 2.0 | 2.0 | 0.00 | 0.00 | 0.00 | 100 | 958.4 |
| 20260831005604 | 57 | 339 | 2.0 | 3.0 | 0.00 | 0.00 | 0.00 | 100 | 958.4 |
| 20260831005400 | 57 | 337 | 2.0 | 3.0 | 0.00 | 0.00 | 0.00 | 100 | 958.3 |
| 20260831005259 | 57 | 343 | 2.0 | 4.0 | 0.00 | 0.00 | 0.00 | 100 | 958.4 |
| 20260831005153 | 58 | 343 | 2.0 | 4.0 | 0.00 | 0.00 | 0.00 | 100 | 958.4 |
| 20260831004949 | 58 | 338 | 2.0 | 4.0 | 0.00 | 0.00 | 0.00 | 100 | 958.4 |
| 20260831004746 | 58 | 317 | 3.0 | 4.0 | 0.00 | 0.00 | 0.00 | 100 | 958.4 |
| 20260831004645 | 58 | 313 | 3.0 | 4.0 | 0.00 | 0.00 | 0.00 | 100 | 958.4 |
| 20260831004543 | 58 | 311 | 3.0 | 4.0 | 0.00 | 0.00 | 0.00 | 100 | 958.5 |
| 20260831004340 | 58 | 311 | 4.0 | 5.0 | 0.00 | 0.00 | 0.00 | 100 | 958.4 |
| 20260831004137 | 58 | 311 | 4.0 | 5.0 | 0.00 | 0.00 | 0.00 | 100 | 958.4 |
| 20260831004036 | 58 | 311 | 4.0 | 5.0 | 0.00 | 0.00 | 0.00 | 100 | 958.4 |
| 20260831003934 | 58 | 315 | 4.0 | 5.0 | 0.00 | 0.00 | 0.00 | 100 | 958.4 |
| 20260831003731 | 58 | 320 | 4.0 | 5.0 | 0.00 | 0.00 | 0.00 | 100 | 958.4 |
| 20260831003528 | 58 | 318 | 3.0 | 4.0 | 0.00 | 0.00 | 0.00 | 100 | 958.4 |
| 20260831003325 | 58 | 312 | 3.0 | 4.0 | 0.00 | 0.00 | 0.00 | 100 | 958.5 |
| 20260831003121 | 58 | 307 | 3.0 | 4.0 | 0.00 | 0.00 | 0.00 | 100 | 958.5 |
| 20260831002918 | 58 | 306 | 4.0 | 5.0 | 0.00 | 0.00 | 0.00 | 100 | 958.5 |
| 20260831002818 | 58 | 303 | 4.0 | 6.0 | 0.00 | 0.00 | 0.00 | 100 | 958.6 |
| 20260831002715 | 58 | 305 | 4.0 | 6.0 | 0.00 | 0.00 | 0.00 | 100 | 958.4 |
| 20260831002512 | 57 | 305 | 4.0 | 6.0 | 0.00 | 0.00 | 0.00 | 100 | 958.5 |
| 20260831002310 | 57 | 305 | 4.0 | 6.0 | 0.00 | 0.00 | 0.00 | 100 | 958.4 |
| 20260831002209 | 58 | 304 | 5.0 | 6.0 | 0.00 | 0.00 | 0.00 | 100 | 958.5 |
| 20260831002106 | 57 | 305 | 5.0 | 6.0 | 0.00 | 0.00 | 0.00 | 100 | 958.4 |
| 20260831001903 | 57 | 308 | 5.0 | 6.0 | 0.00 | 0.00 | 0.00 | 100 | 958.5 |
| 20260831001700 | 57 | 314 | 5.0 | 7.0 | 0.00 | 0.00 | 0.00 | 100 | 958.4 |
| 20260831001559 | 57 | 314 | 5.0 | 7.0 | 0.00 | 0.00 | 0.00 | 100 | 958.5 |
| 20260831001456 | 57 | 314 | 5.0 | 7.0 | 0.00 | 0.00 | 0.00 | 100 | 958.4 |
| 20260831001253 | 58 | 318 | 4.0 | 6.0 | 0.00 | 0.00 | 0.00 | 100 | 958.4 |
| 20260831001050 | 58 | 319 | 4.0 | 6.0 | 0.00 | 0.00 | 0.00 | 100 | 958.5 |
| 20260831000950 | 58 | 319 | 4.0 | 6.0 | 0.00 | 0.00 | 0.00 | 100 | 958.4 |
| 20260831000847 | 58 | 319 | 4.0 | 6.0 | 0.00 | 0.00 | 0.00 | 100 | 958.3 |
| 20260831000645 | 58 | 318 | 4.0 | 6.0 | 0.00 | 0.00 | 0.00 | 100 | 958.4 |
| 20260831000442 | 58 | 314 | 5.0 | 7.0 | 0.00 | 0.00 | 0.00 | 100 | 958.4 |
| 20260831000341 | 58 | 314 | 5.0 | 7.0 | 0.00 | 0.00 | 0.00 | 100 | 958.5 |
| 20260831000238 | 58 | 314 | 5.0 | 7.0 | 0.00 | 0.00 | 0.00 | 100 | 958.4 |
| 20260831000034 | 58 | 314 | 5.0 | 6.0 | 0.00 | 0.00 | 0.00 | 100 | 958.4 |
| 20260830235832 | 58 | 313 | 5.0 | 6.0 | 0.00 | 0.00 | 0.00 | 100 | 958.3 |
| 20260830235628 | 58 | 314 | 4.0 | 6.0 | 0.00 | 0.00 | 0.00 | 100 | 958.4 |
| 20260830235425 | 59 | 315 | 5.0 | 6.0 | 0.00 | 0.00 | 0.00 | 100 | 958.4 |
| 20260830235221 | 59 | 313 | 5.0 | 7.0 | 0.00 | 0.00 | 0.00 | 100 | 958.5 |
| 20260830235120 | 59 | 312 | 5.0 | 7.0 | 0.00 | 0.00 | 0.00 | 100 | 958.5 |
| 20260830235015 | 59 | 311 | 5.0 | 6.0 | 0.00 | 0.00 | 0.00 | 100 | 958.4 |
| 20260830234811 | 59 | 311 | 5.0 | 6.0 | 0.00 | 0.00 | 0.00 | 100 | 958.5 |
| 20260830234608 | 59 | 309 | 4.0 | 5.0 | 0.00 | 0.00 | 0.00 | 100 | 958.5 |
| 20260830234507 | 59 | 310 | 4.0 | 5.0 | 0.00 | 0.00 | 0.00 | 100 | 958.5 |
| 20260830234405 | 58 | 310 | 4.0 | 5.0 | 0.00 | 0.00 | 0.00 | 100 | 958.4 |
| 20260830234201 | 59 | 326 | 4.0 | 4.0 | 0.00 | 0.00 | 0.00 | 100 | 958.4 |
| 20260830233945 | 59 | 332 | 4.0 | 4.0 | 0.00 | 0.00 | 0.00 | 100 | 958.5 |
| 20260830233844 | 59 | 330 | 4.0 | 4.0 | 0.00 | 0.00 | 0.00 | 100 | 958.4 |
| 20260830233742 | 59 | 333 | 4.0 | 4.0 | 0.00 | 0.00 | 0.00 | 100 | 958.5 |
| 20260830233538 | 59 | 324 | 3.0 | 4.0 | 0.00 | 0.00 | 0.00 | 100 | 958.5 |
| 20260830233335 | 59 | 314 | 3.0 | 5.0 | 0.00 | 0.00 | 0.00 | 100 | 958.6 |
| 20260830233234 | 59 | 311 | 3.0 | 5.0 | 0.00 | 0.00 | 0.00 | 100 | 958.6 |
| 20260830233132 | 59 | 308 | 3.0 | 5.0 | 0.00 | 0.00 | 0.00 | 100 | 958.5 |
| 20260830232929 | 59 | 306 | 3.0 | 4.0 | 0.00 | 0.00 | 0.00 | 100 | 958.5 |
| 20260830232725 | 59 | 308 | 4.0 | 4.0 | 0.00 | 0.00 | 0.00 | 100 | 958.6 |
| 20260830232625 | 59 | 308 | 4.0 | 4.0 | 0.00 | 0.00 | 0.00 | 100 | 958.6 |
| 20260830232522 | 58 | 309 | 4.0 | 5.0 | 0.00 | 0.00 | 0.00 | 100 | 958.6 |
| 20260830232320 | 59 | 313 | 4.0 | 5.0 | 0.00 | 0.00 | 0.00 | 100 | 958.5 |
| 20260830232116 | 59 | 315 | 4.0 | 5.0 | 0.00 | 0.00 | 0.00 | 100 | 958.6 |
| 20260830232015 | 58 | 314 | 4.0 | 5.0 | 0.00 | 0.00 | 0.00 | 100 | 958.6 |
| 20260830231913 | 59 | 311 | 4.0 | 5.0 | 0.00 | 0.00 | 0.00 | 100 | 958.6 |
| 20260830231709 | 58 | 302 | 4.0 | 6.0 | 0.00 | 0.00 | 0.00 | 100 | 958.5 |
| 20260830231507 | 58 | 307 | 4.0 | 6.0 | 0.00 | 0.00 | 0.00 | 100 | 958.7 |
| 20260830231406 | 58 | 306 | 4.0 | 6.0 | 0.00 | 0.00 | 0.00 | 100 | 958.6 |
| 20260830231304 | 58 | 309 | 4.0 | 5.0 | 0.00 | 0.00 | 0.00 | 100 | 958.5 |
| 20260830231100 | 58 | 309 | 4.0 | 5.0 | 0.00 | 0.00 | 0.00 | 100 | 958.5 |
| 20260830230857 | 58 | 310 | 4.0 | 6.0 | 0.00 | 0.00 | 0.00 | 100 | 958.4 |
| 20260830230756 | 58 | 310 | 4.0 | 6.0 | 0.00 | 0.00 | 0.00 | 100 | 958.5 |
| 20260830230653 | 59 | 310 | 5.0 | 6.0 | 0.00 | 0.00 | 0.00 | 100 | 958.5 |
| 20260830230449 | 59 | 307 | 5.0 | 6.0 | 0.00 | 0.00 | 0.00 | 100 | 958.4 |
| 20260830230246 | 59 | 311 | 4.0 | 5.0 | 0.00 | 0.00 | 0.00 | 100 | 958.4 |
| 20260830230145 | 58 | 313 | 4.0 | 5.0 | 0.00 | 0.00 | 0.00 | 100 | 958.4 |
| 20260830230043 | 59 | 316 | 4.0 | 5.0 | 0.00 | 0.00 | 0.00 | 100 | 958.5 |
| 20260830225840 | 59 | 316 | 4.0 | 5.0 | 0.00 | 0.00 | 0.00 | 100 | 958.4 |
| 20260830225637 | 59 | 320 | 4.0 | 5.0 | 0.00 | 0.00 | 0.00 | 100 | 958.4 |
| 20260830225536 | 59 | 321 | 4.0 | 5.0 | 0.00 | 0.00 | 0.00 | 100 | 958.6 |
| 20260830225433 | 59 | 320 | 4.0 | 5.0 | 0.00 | 0.00 | 0.00 | 100 | 958.4 |
| 20260830225230 | 59 | 324 | 4.0 | 5.0 | 0.00 | 0.00 | 0.00 | 100 | 958.5 |
| 20260830225026 | 59 | 328 | 4.0 | 5.0 | 0.00 | 0.00 | 0.00 | 100 | 958.5 |
| 20260830224926 | 59 | 323 | 4.0 | 5.0 | 0.00 | 0.00 | 0.00 | 100 | 958.5 |
| 20260830224820 | 59 | 324 | 4.0 | 5.0 | 0.00 | 0.00 | 0.00 | 100 | 958.5 |
| 20260830224617 | 59 | 320 | 4.0 | 5.0 | 0.00 | 0.00 | 0.00 | 100 | 958.4 |
| 20260830224414 | 59 | 319 | 4.0 | 5.0 | 0.00 | 0.00 | 0.00 | 100 | 958.4 |
| 20260830224313 | 59 | 318 | 4.0 | 5.0 | 0.00 | 0.00 | 0.00 | 100 | 958.5 |
| 20260830224210 | 59 | 321 | 4.0 | 5.0 | 0.00 | 0.00 | 0.00 | 100 | 958.5 |
| 20260830224007 | 59 | 323 | 3.0 | 4.0 | 0.00 | 0.00 | 0.00 | 100 | 958.5 |
| 20260830223804 | 59 | 316 | 2.0 | 4.0 | 0.00 | 0.00 | 0.00 | 100 | 958.5 |
| 20260830223703 | 59 | 313 | 3.0 | 4.0 | 0.00 | 0.00 | 0.00 | 100 | 958.4 |
| 20260830223601 | 59 | 316 | 3.0 | 4.0 | 0.00 | 0.00 | 0.00 | 100 | 958.5 |
| 20260830223359 | 59 | 318 | 2.0 | 4.0 | 0.00 | 0.00 | 0.00 | 100 | 958.5 |
| 20260830223156 | 59 | 336 | 3.0 | 4.0 | 0.00 | 0.00 | 0.00 | 100 | 958.5 |
| 20260830223056 | 59 | 340 | 3.0 | 4.0 | 0.00 | 0.00 | 0.00 | 100 | 958.5 |
| 20260830222953 | 60 | 343 | 3.0 | 4.0 | 0.00 | 0.00 | 0.00 | 100 | 958.5 |
| 20260830222750 | 60 | 338 | 3.0 | 4.0 | 0.00 | 0.00 | 0.00 | 100 | 958.5 |
| 20260830222546 | 60 | 333 | 3.0 | 5.0 | 0.00 | 0.00 | 0.00 | 100 | 958.5 |
| 20260830222343 | 60 | 330 | 3.0 | 5.0 | 0.00 | 0.00 | 0.00 | 100 | 958.5 |
| 20260830222140 | 60 | 334 | 3.0 | 6.0 | 0.00 | 0.00 | 0.00 | 100 | 958.6 |
| 20260830221937 | 60 | 330 | 4.0 | 5.0 | 0.00 | 0.00 | 0.00 | 100 | 958.5 |
| 20260830221836 | 60 | 324 | 4.0 | 5.0 | 0.00 | 0.00 | 0.00 | 100 | 958.5 |
| 20260830221734 | 61 | 322 | 5.0 | 6.0 | 0.00 | 0.00 | 0.00 | 100 | 958.6 |
| 20260830221530 | 60 | 314 | 5.0 | 6.0 | 0.00 | 0.00 | 0.00 | 100 | 958.6 |
| 20260830221327 | 60 | 303 | 4.0 | 6.0 | 0.00 | 0.00 | 0.00 | 100 | 958.6 |
| 20260830221227 | 60 | 299 | 4.0 | 6.0 | 0.00 | 0.00 | 0.00 | 100 | 958.6 |
| 20260830221124 | 60 | 301 | 4.0 | 6.0 | 0.00 | 0.00 | 0.00 | 100 | 958.7 |
| 20260830220921 | 60 | 302 | 4.0 | 5.0 | 0.00 | 0.00 | 0.00 | 100 | 958.6 |
| 20260830220717 | 60 | 305 | 4.0 | 5.0 | 0.00 | 0.00 | 0.00 | 100 | 958.6 |
| 20260830220616 | 60 | 312 | 4.0 | 4.0 | 0.00 | 0.00 | 0.00 | 100 | 958.7 |
| 20260830220514 | 60 | 318 | 4.0 | 4.0 | 0.00 | 0.00 | 0.00 | 100 | 958.7 |
| 20260830220311 | 60 | 317 | 3.0 | 4.0 | 0.00 | 0.00 | 0.00 | 100 | 958.6 |
| 20260830220108 | 61 | 318 | 2.0 | 4.0 | 0.00 | 0.00 | 0.00 | 100 | 958.5 |
| 20260830220008 | 61 | 316 | 2.0 | 3.0 | 0.00 | 0.00 | 0.00 | 100 | 958.6 |
| 20260830215906 | 61 | 319 | 2.0 | 3.0 | 0.00 | 0.00 | 0.00 | 100 | 958.6 |
| 20260830215702 | 61 | 319 | 2.0 | 3.0 | 0.00 | 0.00 | 0.00 | 100 | 958.6 |
| 20260830215459 | 61 | 325 | 2.0 | 3.0 | 0.00 | 0.00 | 0.00 | 100 | 958.6 |
| 20260830215358 | 61 | 328 | 1.0 | 2.0 | 0.00 | 0.00 | 0.00 | 100 | 958.6 |
| 20260830215255 | 61 | 325 | 1.0 | 3.0 | 0.00 | 0.00 | 0.00 | 100 | 958.6 |
| 20260830215053 | 61 | 336 | 2.0 | 3.0 | 0.00 | 0.00 | 0.00 | 100 | 958.6 |
| 20260830214850 | 61 | 330 | 2.0 | 3.0 | 0.00 | 0.00 | 0.00 | 100 | 958.6 |
| 20260830214750 | 61 | 320 | 2.0 | 3.0 | 0.00 | 0.00 | 0.00 | 100 | 958.6 |
| 20260830214644 | 61 | 317 | 3.0 | 4.0 | 0.00 | 0.00 | 0.00 | 100 | 958.6 |
| 20260830214440 | 61 | 305 | 2.0 | 4.0 | 0.00 | 0.00 | 0.00 | 100 | 958.5 |
| 20260830214238 | 61 | 308 | 2.0 | 3.0 | 0.00 | 0.00 | 0.00 | 100 | 958.6 |
| 20260830214034 | 62 | 309 | 2.0 | 3.0 | 0.00 | 0.00 | 0.00 | 100 | 958.6 |
| 20260830213831 | 62 | 318 | 2.0 | 3.0 | 0.00 | 0.00 | 0.00 | 100 | 958.6 |
| 20260830213628 | 62 | 325 | 2.0 | 3.0 | 0.00 | 0.00 | 0.00 | 100 | 958.6 |
| 20260830213528 | 61 | 327 | 2.0 | 3.0 | 0.00 | 0.00 | 0.00 | 100 | 958.6 |
| 20260830213425 | 61 | 329 | 2.0 | 3.0 | 0.00 | 0.00 | 0.00 | 100 | 958.6 |
| 20260830213222 | 61 | 328 | 2.0 | 4.0 | 0.00 | 0.00 | 0.00 | 100 | 958.6 |
| 20260830213020 | 62 | 314 | 3.0 | 4.0 | 0.00 | 0.00 | 0.00 | 100 | 958.6 |
| 20260830212919 | 61 | 312 | 3.0 | 4.0 | 0.00 | 0.00 | 0.00 | 100 | 958.6 |
| 20260830212817 | 62 | 312 | 3.0 | 4.0 | 0.00 | 0.00 | 0.00 | 100 | 958.6 |
| 20260830212614 | 62 | 317 | 3.0 | 5.0 | 0.00 | 0.00 | 0.00 | 100 | 958.6 |
| 20260830212411 | 62 | 308 | 4.0 | 6.0 | 0.00 | 0.00 | 0.00 | 100 | 958.6 |
| 20260830212312 | 62 | 310 | 4.0 | 6.0 | 0.00 | 0.00 | 0.00 | 100 | 958.6 |
| 20260830212208 | 62 | 307 | 4.0 | 6.0 | 0.00 | 0.00 | 0.00 | 100 | 958.5 |
| 20260830212006 | 62 | 303 | 4.0 | 5.0 | 0.00 | 0.00 | 0.00 | 100 | 958.6 |
| 20260830211802 | 62 | 301 | 4.0 | 5.0 | 0.00 | 0.00 | 0.00 | 100 | 958.6 |
| 20260830211559 | 62 | 302 | 3.0 | 4.0 | 0.00 | 0.00 | 0.00 | 100 | 958.6 |
| 20260830211356 | 62 | 303 | 2.0 | 4.0 | 0.00 | 0.00 | 0.00 | 100 | 958.5 |
| 20260830211153 | 62 | 298 | 2.0 | 3.0 | 0.00 | 0.00 | 0.00 | 100 | 958.6 |
| 20260830211053 | 62 | 300 | 2.0 | 3.0 | 0.00 | 0.00 | 0.00 | 100 | 958.5 |
| 20260830210951 | 62 | 301 | 2.0 | 3.0 | 0.00 | 0.00 | 0.00 | 100 | 958.6 |
| 20260830210748 | 62 | 294 | 1.0 | 2.0 | 0.00 | 0.00 | 0.00 | 100 | 958.6 |
| 20260830210546 | 62 | 279 | 2.0 | 3.0 | 0.00 | 0.00 | 0.00 | 100 | 958.6 |
| 20260830210445 | 62 | 283 | 2.0 | 3.0 | 0.00 | 0.00 | 0.00 | 100 | 958.6 |
| 20260830210342 | 62 | 292 | 2.0 | 3.0 | 0.00 | 0.00 | 0.00 | 100 | 958.7 |
| 20260830210138 | 62 | 309 | 2.0 | 3.0 | 0.00 | 0.00 | 0.00 | 100 | 958.5 |
| 20260830205925 | 62 | 326 | 2.0 | 2.0 | 0.00 | 0.00 | 0.00 | 100 | 958.6 |
| 20260830205824 | 62 | 322 | 2.0 | 2.0 | 0.00 | 0.00 | 0.00 | 100 | 958.7 |
| 20260830205722 | 62 | 318 | 2.0 | 2.0 | 0.00 | 0.00 | 0.00 | 100 | 958.7 |
| 20260830205519 | 62 | 301 | 2.0 | 3.0 | 0.00 | 0.00 | 0.00 | 100 | 958.6 |
| 20260830205316 | 62 | 302 | 2.0 | 3.0 | 0.00 | 0.00 | 0.00 | 100 | 958.6 |
| 20260830205216 | 62 | 302 | 2.0 | 3.0 | 0.00 | 0.00 | 0.00 | 100 | 958.6 |
| 20260830205112 | 62 | 304 | 2.0 | 3.0 | 0.00 | 0.00 | 0.00 | 100 | 958.7 |
| 20260830204909 | 61 | 323 | 2.0 | 5.0 | 0.00 | 0.00 | 0.00 | 100 | 958.6 |
| 20260830204705 | 61 | 332 | 3.0 | 5.0 | 0.00 | 0.00 | 0.00 | 100 | 958.6 |
| 20260830204605 | 62 | 337 | 4.0 | 6.0 | 0.00 | 0.00 | 0.00 | 100 | 958.5 |
| 20260830204459 | 62 | 337 | 4.0 | 6.0 | 0.00 | 0.00 | 0.00 | 100 | 958.6 |
| 20260830204256 | 63 | 327 | 2.0 | 6.0 | 0.00 | 0.00 | 0.00 | 100 | 958.5 |
| 20260830204052 | 63 | 0 | 1.0 | 2.0 | 0.00 | 0.00 | 0.00 | 100 | 958.6 |
| 20260830203951 | 63 | 0 | 1.0 | 2.0 | 0.00 | 0.00 | 0.00 | 100 | 958.5 |
| 20260830203849 | 63 | 0 | 1.0 | 3.0 | 0.00 | 0.00 | 0.00 | 100 | 958.6 |
| 20260830203646 | 63 | 0 | 1.0 | 4.0 | 0.00 | 0.00 | 0.00 | 100 | 958.4 |
| 20260830203442 | 63 | 0 | 1.0 | 4.0 | 0.00 | 0.00 | 0.00 | 100 | 958.5 |
| 20260830203342 | 63 | 0 | 1.0 | 3.0 | 0.00 | 0.00 | 0.00 | 100 | 958.4 |
| 20260830203239 | 63 | 0 | 1.0 | 4.0 | 0.00 | 0.00 | 0.00 | 100 | 958.5 |
| 20260830203036 | 63 | 0 | 0.0 | 4.0 | 0.00 | 0.00 | 0.00 | 100 | 958.4 |
| 20260830202833 | 63 | 0 | 0.0 | 2.0 | 0.00 | 0.00 | 0.00 | 100 | 958.4 |
| 20260830202732 | 63 | 0 | 0.0 | 2.0 | 0.00 | 0.00 | 0.00 | 100 | 958.5 |
| 20260830202629 | 63 | 0 | 0.0 | 2.0 | 0.00 | 0.00 | 0.00 | 100 | 958.4 |
| 20260830202426 | 63 | 0 | 0.0 | 2.0 | 0.00 | 0.00 | 0.00 | 100 | 958.5 |
| 20260830202122 | 63 | 0 | 0.0 | 2.0 | 0.00 | 0.00 | 0.00 | 100 | 958.5 |
| 20260830202019 | 64 | 0 | 0.0 | 2.0 | 0.00 | 0.00 | 0.00 | 100 | 958.5 |
| 20260830201816 | 64 | 0 | 0.0 | 2.0 | 0.00 | 0.00 | 0.00 | 100 | 958.5 |
| 20260830201613 | 64 | 0 | 0.0 | 2.0 | 0.00 | 0.00 | 0.00 | 100 | 958.5 |
| 20260830201512 | 64 | 232 | 0.0 | 3.0 | 0.00 | 0.00 | 0.00 | 100 | 958.4 |
| 20260830201410 | 64 | 243 | 1.0 | 3.0 | 0.00 | 0.00 | 0.00 | 100 | 958.5 |
| 20260830201206 | 65 | 257 | 2.0 | 3.0 | 0.00 | 0.00 | 0.00 | 100 | 958.4 |
| 20260830201003 | 64 | 268 | 2.0 | 3.0 | 0.00 | 0.00 | 0.00 | 100 | 958.5 |
| 20260830200902 | 64 | 268 | 1.0 | 2.0 | 0.00 | 0.00 | 0.00 | 100 | 958.5 |
| 20260830200800 | 64 | 263 | 1.0 | 2.0 | 0.00 | 0.00 | 0.00 | 100 | 958.5 |
| 20260830200556 | 64 | 0 | 0.0 | 2.0 | 0.00 | 0.00 | 0.00 | 100 | 958.5 |
| 20260830200353 | 64 | 133 | 1.0 | 2.0 | 0.00 | 0.00 | 0.00 | 100 | 958.5 |
| 20260830200252 | 64 | 134 | 1.0 | 2.0 | 0.00 | 0.00 | 0.00 | 100 | 958.6 |
| 20260830200150 | 64 | 132 | 1.0 | 2.0 | 0.00 | 0.00 | 0.00 | 100 | 958.5 |
| 20260830195947 | 64 | 128 | 1.0 | 2.0 | 0.00 | 0.00 | 0.00 | 100 | 958.5 |
| 20260830195743 | 63 | 142 | 1.0 | 2.0 | 0.00 | 0.00 | 0.00 | 100 | 958.5 |
| 20260830195643 | 63 | 149 | 1.0 | 2.0 | 0.00 | 0.00 | 0.00 | 100 | 958.4 |
| 20260830195540 | 63 | 154 | 1.0 | 2.0 | 0.00 | 0.00 | 0.00 | 100 | 958.6 |
| 20260830195338 | 63 | 148 | 1.0 | 3.0 | 0.00 | 0.00 | 0.00 | 100 | 958.5 |
| 20260830195135 | 63 | 145 | 2.0 | 3.0 | 0.00 | 0.00 | 0.00 | 100 | 958.5 |
| 20260830194931 | 63 | 149 | 2.0 | 3.0 | 0.00 | 0.00 | 0.00 | 100 | 958.5 |
| 20260830194729 | 64 | 146 | 1.0 | 2.0 | 0.00 | 0.00 | 0.00 | 100 | 958.5 |
| 20260830194526 | 64 | 146 | 1.0 | 2.0 | 0.00 | 0.00 | 0.00 | 100 | 958.5 |
| 20260830194425 | 64 | 148 | 1.0 | 2.0 | 0.00 | 0.00 | 0.00 | 100 | 958.5 |
| 20260830194319 | 64 | 151 | 2.0 | 3.0 | 0.00 | 0.00 | 0.00 | 100 | 958.5 |
| 20260830194116 | 64 | 169 | 2.0 | 3.0 | 0.00 | 0.00 | 0.00 | 100 | 958.6 |
| 20260830193913 | 63 | 177 | 1.0 | 3.0 | 0.00 | 0.00 | 0.00 | 100 | 958.5 |
| 20260830193812 | 63 | 177 | 1.0 | 3.0 | 0.00 | 0.00 | 0.00 | 100 | 958.4 |
| 20260830193710 | 64 | 179 | 1.0 | 3.0 | 0.00 | 0.00 | 0.00 | 100 | 958.5 |
| 20260830193507 | 64 | 213 | 1.0 | 3.0 | 0.00 | 0.00 | 0.00 | 100 | 958.5 |
| 20260830193303 | 64 | 259 | 1.0 | 3.0 | 0.00 | 0.00 | 0.00 | 100 | 958.5 |
| 20260830193203 | 64 | 265 | 2.0 | 4.0 | 0.00 | 0.00 | 0.00 | 100 | 958.5 |
| 20260830193100 | 64 | 280 | 2.0 | 4.0 | 0.00 | 0.00 | 0.00 | 100 | 958.4 |
| 20260830192856 | 64 | 283 | 3.0 | 4.0 | 0.00 | 0.00 | 0.00 | 100 | 958.4 |
| 20260830192653 | 64 | 285 | 3.0 | 4.0 | 0.00 | 0.00 | 0.00 | 100 | 958.5 |
| 20260830192553 | 64 | 295 | 3.0 | 4.0 | 0.00 | 0.00 | 0.00 | 100 | 958.4 |
| 20260830192450 | 64 | 298 | 3.0 | 4.0 | 0.00 | 0.00 | 0.00 | 100 | 958.4 |
| 20260830192247 | 64 | 308 | 3.0 | 4.0 | 0.00 | 0.00 | 0.00 | 100 | 958.3 |
| 20260830192044 | 64 | 310 | 3.0 | 4.0 | 0.00 | 0.00 | 0.00 | 100 | 958.4 |
| 20260830191943 | 64 | 312 | 3.0 | 5.0 | 0.00 | 0.00 | 0.00 | 100 | 958.4 |
| 20260830191840 | 65 | 314 | 4.0 | 6.0 | 0.00 | 0.00 | 0.00 | 100 | 958.4 |
| 20260830191638 | 65 | 311 | 3.0 | 6.0 | 0.00 | 0.00 | 0.00 | 100 | 958.4 |
| 20260830191434 | 66 | 316 | 3.0 | 5.0 | 0.00 | 0.00 | 0.00 | 100 | 958.4 |
| 20260830191333 | 66 | 319 | 2.0 | 5.0 | 0.00 | 0.00 | 0.00 | 100 | 958.3 |
| 20260830191231 | 66 | 321 | 2.0 | 5.0 | 0.00 | 0.00 | 0.00 | 100 | 958.3 |
| 20260830191027 | 67 | 299 | 2.0 | 6.0 | 0.00 | 0.00 | 0.00 | 100 | 958.3 |
| 20260830190824 | 68 | 228 | 1.0 | 6.0 | 0.00 | 0.00 | 0.00 | 100 | 958.4 |
| 20260830190723 | 68 | 0 | 1.0 | 5.0 | 0.00 | 0.00 | 0.00 | 100 | 958.4 |
| 20260830190621 | 68 | 0 | 1.0 | 5.0 | 0.00 | 0.00 | 0.00 | 100 | 958.4 |
| 20260830190418 | 68 | 215 | 1.0 | 5.0 | 0.00 | 0.00 | 0.00 | 100 | 958.3 |
| 20260830190215 | 67 | 219 | 1.0 | 6.0 | 0.00 | 0.00 | 0.00 | 100 | 958.3 |
| 20260830190114 | 67 | 0 | 1.0 | 5.0 | 0.00 | 0.00 | 0.00 | 100 | 958.3 |
| 20260830190012 | 67 | 0 | 1.0 | 5.0 | 0.00 | 0.00 | 0.00 | 100 | 958.3 |
| 20260830185809 | 67 | 215 | 1.0 | 5.0 | 0.00 | 0.00 | 0.00 | 100 | 958.3 |
| 20260830185606 | 67 | 216 | 1.0 | 5.0 | 0.00 | 0.00 | 0.00 | 100 | 958.3 |
| 20260830185506 | 67 | 220 | 1.0 | 5.0 | 0.00 | 0.00 | 0.00 | 100 | 958.3 |
| 20260830185403 | 67 | 221 | 1.0 | 5.0 | 0.00 | 0.00 | 0.00 | 100 | 958.3 |
| 20260830185200 | 66 | 0 | 1.0 | 5.0 | 0.00 | 0.00 | 0.00 | 100 | 958.2 |
| 20260830184957 | 67 | 0 | 1.0 | 4.0 | 0.00 | 0.00 | 0.00 | 100 | 958.3 |
| 20260830184856 | 67 | 0 | 1.0 | 4.0 | 0.00 | 0.00 | 0.00 | 100 | 958.3 |
| 20260830184753 | 67 | 224 | 1.0 | 4.0 | 0.00 | 0.00 | 0.00 | 100 | 958.3 |
| 20260830184549 | 66 | 0 | 1.0 | 4.0 | 0.00 | 0.00 | 0.00 | 100 | 958.3 |
| 20260830184346 | 67 | 0 | 1.0 | 4.0 | 0.00 | 0.00 | 0.00 | 100 | 958.3 |
| 20260830184246 | 67 | 0 | 1.0 | 4.0 | 0.00 | 0.00 | 0.00 | 100 | 958.3 |
| 20260830184141 | 67 | 0 | 1.0 | 4.0 | 0.00 | 0.00 | 0.00 | 100 | 958.3 |
| 20260830183938 | 67 | 0 | 1.0 | 4.0 | 0.00 | 0.00 | 0.00 | 100 | 958.3 |
| 20260830183735 | 67 | 226 | 1.0 | 4.0 | 0.00 | 0.00 | 0.00 | 100 | 958.3 |
| 20260830183634 | 67 | 221 | 1.0 | 4.0 | 0.00 | 0.00 | 0.00 | 100 | 958.4 |
| 20260830183532 | 67 | 220 | 1.0 | 4.0 | 0.00 | 0.00 | 0.00 | 100 | 958.4 |
| 20260830183329 | 67 | 218 | 1.0 | 4.0 | 0.00 | 0.00 | 0.00 | 100 | 958.4 |
| 20260830183126 | 66 | 0 | 1.0 | 4.0 | 0.00 | 0.00 | 0.00 | 100 | 958.4 |
| 20260830183024 | 66 | 0 | 1.0 | 4.0 | 0.00 | 0.00 | 0.00 | 100 | 958.3 |
| 20260830182921 | 66 | 0 | 1.0 | 5.0 | 0.00 | 0.00 | 0.00 | 100 | 958.3 |
| 20260830182718 | 66 | 0 | 1.0 | 5.0 | 0.00 | 0.00 | 0.00 | 100 | 958.3 |
| 20260830182515 | 66 | 0 | 1.0 | 5.0 | 0.00 | 0.00 | 0.00 | 100 | 958.3 |
| 20260830182414 | 66 | 0 | 1.0 | 3.0 | 0.00 | 0.00 | 0.00 | 100 | 958.2 |
| 20260830182312 | 67 | 0 | 1.0 | 3.0 | 0.00 | 0.00 | 0.00 | 100 | 958.3 |
| 20260830182056 | 67 | 0 | 1.0 | 3.0 | 0.00 | 0.00 | 0.00 | 100 | 958.2 |
| 20260830181852 | 68 | 236 | 1.0 | 5.0 | 0.00 | 0.00 | 0.00 | 100 | 958.2 |
| 20260830181751 | 68 | 235 | 1.0 | 5.0 | 0.00 | 0.00 | 0.00 | 100 | 958.2 |
| 20260830181649 | 68 | 230 | 1.0 | 5.0 | 0.00 | 0.00 | 0.00 | 100 | 958.2 |
| 20260830181446 | 68 | 211 | 1.0 | 5.0 | 0.00 | 0.00 | 0.00 | 100 | 958.2 |
| 20260830181243 | 67 | 212 | 1.0 | 5.0 | 0.00 | 0.00 | 0.00 | 100 | 958.2 |
| 20260830181142 | 67 | 217 | 1.0 | 4.0 | 0.00 | 0.00 | 0.00 | 100 | 958.1 |
| 20260830181040 | 67 | 0 | 1.0 | 4.0 | 0.00 | 0.00 | 0.00 | 100 | 958.2 |
| 20260830180837 | 67 | 0 | 1.0 | 3.0 | 0.00 | 0.00 | 0.00 | 100 | 958.2 |
| 20260830180732 | 67 | 0 | 1.0 | 3.0 | 0.00 | 0.00 | 0.00 | 100 | 958.2 |
| 20260830180533 | 67 | 0 | 1.0 | 4.0 | 0.00 | 0.00 | 0.00 | 100 | 958.1 |
| 20260830180430 | 67 | 0 | 1.0 | 4.0 | 0.00 | 0.00 | 0.00 | 100 | 958.2 |
| 20260830180227 | 67 | 0 | 1.0 | 4.0 | 0.00 | 0.00 | 0.00 | 100 | 958.2 |
| 20260830180024 | 66 | 0 | 1.0 | 3.0 | 0.00 | 0.00 | 0.00 | 100 | 958.0 |
| 20260830175924 | 66 | 0 | 1.0 | 3.0 | 0.00 | 0.00 | 0.00 | 100 | 958.0 |
| 20260830175822 | 66 | 0 | 1.0 | 4.0 | 0.00 | 0.00 | 0.00 | 100 | 958.1 |
| 20260830175618 | 67 | 0 | 1.0 | 4.0 | 0.00 | 0.00 | 0.00 | 100 | 958.0 |
| 20260830175415 | 67 | 0 | 1.0 | 3.0 | 0.00 | 0.00 | 0.00 | 100 | 958.1 |
| 20260830175314 | 67 | 0 | 1.0 | 3.0 | 0.00 | 0.00 | 0.00 | 100 | 958.0 |
| 20260830175212 | 67 | 0 | 1.0 | 4.0 | 0.00 | 0.00 | 0.00 | 100 | 958.0 |
| 20260830175009 | 67 | 0 | 1.0 | 4.0 | 0.00 | 0.00 | 0.00 | 100 | 958.1 |
| 20260830174805 | 67 | 0 | 1.0 | 3.0 | 0.00 | 0.00 | 0.00 | 100 | 958.0 |
| 20260830174602 | 67 | 0 | 1.0 | 3.0 | 0.00 | 0.00 | 0.00 | 100 | 957.9 |
| 20260830174359 | 68 | 0 | 1.0 | 3.0 | 0.00 | 0.00 | 0.00 | 100 | 957.9 |
| 20260830174155 | 68 | 0 | 1.0 | 4.0 | 0.00 | 0.00 | 0.00 | 100 | 958.0 |
| 20260830174055 | 68 | 0 | 1.0 | 4.0 | 0.00 | 0.00 | 0.00 | 100 | 958.0 |
| 20260830173949 | 68 | 0 | 1.0 | 4.0 | 0.00 | 0.00 | 0.00 | 100 | 957.9 |
| 20260830173746 | 68 | 0 | 1.0 | 4.0 | 0.00 | 0.00 | 0.00 | 100 | 958.0 |
| 20260830173543 | 68 | 0 | 1.0 | 5.0 | 0.00 | 0.00 | 0.00 | 100 | 958.0 |
| 20260830173442 | 69 | 0 | 1.0 | 5.0 | 0.00 | 0.00 | 0.00 | 100 | 958.1 |
| 20260830173340 | 69 | 0 | 1.0 | 5.0 | 0.00 | 0.00 | 0.00 | 100 | 958.0 |
| 20260830173137 | 69 | 0 | 1.0 | 5.0 | 0.00 | 0.00 | 0.00 | 100 | 957.9 |
| 20260830172934 | 69 | 0 | 1.0 | 5.0 | 0.00 | 0.00 | 0.00 | 100 | 957.9 |
| 20260830172834 | 69 | 0 | 1.0 | 5.0 | 0.00 | 0.00 | 0.00 | 100 | 957.9 |
| 20260830172731 | 69 | 0 | 1.0 | 3.0 | 0.00 | 0.00 | 0.00 | 100 | 958.0 |
| 20260830172529 | 69 | 0 | 1.0 | 3.0 | 0.00 | 0.00 | 0.00 | 100 | 957.9 |
| 20260830172325 | 69 | 0 | 0.0 | 2.0 | 0.00 | 0.00 | 0.00 | 100 | 957.9 |
| 20260830172225 | 69 | 0 | 0.0 | 3.0 | 0.00 | 0.00 | 0.00 | 100 | 957.9 |
| 20260830172122 | 69 | 0 | 1.0 | 4.0 | 0.00 | 0.00 | 0.00 | 100 | 957.9 |
| 20260830171918 | 69 | 0 | 1.0 | 4.0 | 0.00 | 0.00 | 0.00 | 100 | 957.7 |
| 20260830171716 | 69 | 0 | 1.0 | 4.0 | 0.00 | 0.00 | 0.00 | 100 | 957.8 |
| 20260830171615 | 70 | 0 | 1.0 | 4.0 | 0.00 | 0.00 | 0.00 | 100 | 957.7 |
| 20260830171513 | 70 | 0 | 1.0 | 4.0 | 0.00 | 0.00 | 0.00 | 100 | 957.8 |
| 20260830171309 | 70 | 0 | 0.0 | 3.0 | 0.00 | 0.00 | 0.00 | 100 | 957.7 |
| 20260830171106 | 70 | 0 | 1.0 | 3.0 | 0.00 | 0.00 | 0.00 | 100 | 957.7 |
| 20260830171005 | 70 | 0 | 1.0 | 3.0 | 0.00 | 0.00 | 0.00 | 100 | 957.8 |
| 20260830170902 | 70 | 0 | 1.0 | 3.0 | 0.00 | 0.00 | 0.00 | 100 | 957.7 |
| 20260830170659 | 71 | 0 | 0.0 | 3.0 | 0.00 | 0.00 | 0.00 | 100 | 957.7 |
| 20260830170455 | 71 | 0 | 1.0 | 4.0 | 0.00 | 0.00 | 0.00 | 100 | 957.7 |
| 20260830170355 | 71 | 0 | 1.0 | 4.0 | 0.00 | 0.00 | 0.00 | 100 | 957.7 |
| 20260830170253 | 71 | 0 | 1.0 | 4.0 | 0.00 | 0.00 | 0.00 | 100 | 957.7 |
| 20260830170050 | 71 | 0 | 1.0 | 4.0 | 0.00 | 0.00 | 0.00 | 100 | 957.7 |
| 20260830165846 | 71 | 0 | 1.0 | 4.0 | 0.00 | 0.00 | 0.00 | 100 | 957.7 |
| 20260830165745 | 72 | 0 | 1.0 | 4.0 | 0.00 | 0.00 | 0.00 | 100 | 957.7 |
| 20260830165643 | 72 | 0 | 1.0 | 3.0 | 0.00 | 0.00 | 0.00 | 100 | 957.6 |
| 20260830165439 | 72 | 0 | 1.0 | 3.0 | 0.00 | 0.00 | 0.00 | 100 | 957.6 |
| 20260830165236 | 72 | 0 | 1.0 | 3.0 | 0.00 | 0.00 | 0.00 | 100 | 957.7 |
| 20260830165135 | 72 | 0 | 1.0 | 3.0 | 0.00 | 0.00 | 0.00 | 100 | 957.6 |
| 20260830165032 | 72 | 0 | 0.0 | 3.0 | 0.00 | 0.00 | 0.00 | 100 | 957.6 |
| 20260830164829 | 73 | 0 | 0.0 | 3.0 | 0.00 | 0.00 | 0.00 | 100 | 957.5 |
| 20260830164626 | 73 | 0 | 1.0 | 3.0 | 0.00 | 0.00 | 0.00 | 100 | 957.6 |
| 20260830164526 | 74 | 0 | 1.0 | 3.0 | 0.00 | 0.00 | 0.00 | 100 | 957.6 |
| 20260830164423 | 74 | 0 | 0.0 | 3.0 | 0.00 | 0.00 | 0.00 | 100 | 957.6 |
| 20260830164219 | 74 | 0 | 1.0 | 4.0 | 0.00 | 0.00 | 0.00 | 100 | 957.6 |
| 20260830164016 | 75 | 0 | 1.0 | 4.0 | 0.00 | 0.00 | 0.00 | 100 | 957.6 |
| 20260830163915 | 75 | 0 | 1.0 | 3.0 | 0.00 | 0.00 | 0.00 | 100 | 957.6 |
| 20260830163810 | 75 | 0 | 1.0 | 3.0 | 0.00 | 0.00 | 0.00 | 100 | 957.6 |
| 20260830163606 | 76 | 0 | 1.0 | 4.0 | 0.00 | 0.00 | 0.00 | 100 | 957.6 |
| 20260830163404 | 77 | 0 | 1.0 | 4.0 | 0.00 | 0.00 | 0.00 | 100 | 957.5 |
| 20260830163303 | 77 | 0 | 1.0 | 4.0 | 0.00 | 0.00 | 0.00 | 100 | 957.5 |
| 20260830163201 | 77 | 0 | 1.0 | 3.0 | 0.00 | 0.00 | 0.00 | 100 | 957.5 |
| 20260830162957 | 77 | 0 | 1.0 | 3.0 | 0.00 | 0.00 | 0.00 | 100 | 957.4 |
| 20260830162754 | 77 | 0 | 0.0 | 3.0 | 0.00 | 0.00 | 0.00 | 100 | 957.5 |
| 20260830162653 | 77 | 0 | 1.0 | 3.0 | 0.00 | 0.00 | 0.00 | 100 | 957.5 |
| 20260830162551 | 77 | 0 | 1.0 | 5.0 | 0.00 | 0.00 | 0.00 | 100 | 957.5 |
| 20260830162347 | 77 | 182 | 1.0 | 6.0 | 0.00 | 0.00 | 0.00 | 100 | 957.4 |
| 20260830162144 | 77 | 187 | 1.0 | 5.0 | 0.00 | 0.00 | 0.00 | 100 | 957.5 |
| 20260830162043 | 78 | 187 | 1.0 | 5.0 | 0.00 | 0.00 | 0.00 | 100 | 957.4 |
| 20260830161941 | 78 | 188 | 1.0 | 5.0 | 0.00 | 0.00 | 0.00 | 100 | 957.5 |
| 20260830161738 | 78 | 183 | 1.0 | 5.0 | 0.00 | 0.00 | 0.00 | 100 | 957.6 |
| 20260830161535 | 78 | 186 | 2.0 | 5.0 | 0.00 | 0.00 | 0.00 | 100 | 957.5 |
| 20260830161434 | 78 | 186 | 1.0 | 5.0 | 0.00 | 0.00 | 0.00 | 100 | 957.5 |
| 20260830161331 | 78 | 190 | 1.0 | 5.0 | 0.00 | 0.00 | 0.00 | 100 | 957.5 |
| 20260830161128 | 78 | 176 | 2.0 | 9.0 | 0.00 | 0.00 | 0.00 | 100 | 957.6 |
| 20260830160925 | 78 | 175 | 2.0 | 9.0 | 0.00 | 0.00 | 0.00 | 100 | 957.6 |
| 20260830160824 | 78 | 177 | 2.0 | 9.0 | 0.00 | 0.00 | 0.00 | 100 | 957.6 |
| 20260830160722 | 78 | 209 | 2.0 | 9.0 | 0.00 | 0.00 | 0.00 | 100 | 957.5 |
| 20260830160519 | 79 | 215 | 1.0 | 6.0 | 0.00 | 0.00 | 0.00 | 100 | 957.6 |
| 20260830160316 | 78 | 200 | 2.0 | 5.0 | 0.00 | 0.00 | 0.00 | 100 | 957.7 |
| 20260830160215 | 78 | 180 | 2.0 | 6.0 | 0.00 | 0.00 | 0.00 | 100 | 957.7 |
| 20260830160113 | 78 | 181 | 2.0 | 6.0 | 0.00 | 0.00 | 0.00 | 100 | 957.6 |
| 20260830155910 | 78 | 188 | 2.0 | 6.0 | 0.00 | 0.00 | 0.00 | 100 | 957.6 |
| 20260830155706 | 79 | 217 | 2.0 | 5.0 | 0.00 | 0.00 | 0.00 | 100 | 957.7 |
| 20260830155606 | 79 | 203 | 1.0 | 5.0 | 0.00 | 0.00 | 0.00 | 100 | 957.6 |
| 20260830155503 | 79 | 203 | 1.0 | 5.0 | 0.00 | 0.00 | 0.00 | 100 | 957.7 |
| 20260830155300 | 79 | 199 | 1.0 | 4.0 | 0.00 | 0.00 | 0.00 | 100 | 957.6 |
| 20260830155058 | 79 | 0 | 1.0 | 5.0 | 0.00 | 0.00 | 0.00 | 100 | 957.6 |
| 20260830154957 | 79 | 0 | 1.0 | 5.0 | 0.00 | 0.00 | 0.00 | 100 | 957.7 |
| 20260830154854 | 79 | 0 | 1.0 | 5.0 | 0.00 | 0.00 | 0.00 | 100 | 957.7 |
| 20260830154651 | 78 | 0 | 1.0 | 4.0 | 0.00 | 0.00 | 0.00 | 100 | 957.7 |
| 20260830154448 | 77 | 178 | 1.0 | 4.0 | 0.00 | 0.00 | 0.00 | 100 | 957.7 |
| 20260830154245 | 77 | 178 | 2.0 | 5.0 | 0.00 | 0.00 | 0.00 | 100 | 957.6 |
| 20260830154032 | 77 | 172 | 3.0 | 12.0 | 0.00 | 0.00 | 0.00 | 100 | 957.6 |
| 20260830153829 | 77 | 169 | 4.0 | 12.0 | 0.00 | 0.00 | 0.00 | 100 | 957.6 |
| 20260830153728 | 77 | 167 | 4.0 | 12.0 | 0.00 | 0.00 | 0.00 | 100 | 957.5 |
| 20260830153622 | 77 | 173 | 3.0 | 8.0 | 0.00 | 0.00 | 0.00 | 100 | 957.5 |
| 20260830153418 | 78 | 200 | 2.0 | 4.0 | 0.00 | 0.00 | 0.00 | 100 | 957.6 |
| 20260830153215 | 79 | 241 | 1.0 | 4.0 | 0.00 | 0.00 | 0.00 | 100 | 957.5 |
| 20260830153114 | 79 | 236 | 1.0 | 4.0 | 0.00 | 0.00 | 0.00 | 100 | 957.6 |
| 20260830153012 | 78 | 0 | 1.0 | 4.0 | 0.00 | 0.00 | 0.00 | 100 | 957.6 |
| 20260830152808 | 78 | 0 | 1.0 | 4.0 | 0.00 | 0.00 | 0.00 | 100 | 957.7 |
| 20260830152605 | 79 | 0 | 1.0 | 6.0 | 0.00 | 0.00 | 0.00 | 100 | 957.6 |
| 20260830152504 | 79 | 0 | 1.0 | 6.0 | 0.00 | 0.00 | 0.00 | 100 | 957.7 |
| 20260830152402 | 79 | 0 | 1.0 | 6.0 | 0.00 | 0.00 | 0.00 | 100 | 957.7 |
| 20260830152159 | 79 | 0 | 1.0 | 6.0 | 0.00 | 0.00 | 0.00 | 100 | 957.6 |
| 20260830151956 | 79 | 0 | 1.0 | 6.0 | 0.00 | 0.00 | 0.00 | 100 | 957.6 |
| 20260830151855 | 79 | 238 | 1.0 | 6.0 | 0.00 | 0.00 | 0.00 | 100 | 957.7 |
| 20260830151753 | 79 | 0 | 1.0 | 5.0 | 0.00 | 0.00 | 0.00 | 100 | 957.7 |
| 20260830151549 | 79 | 0 | 1.0 | 5.0 | 0.00 | 0.00 | 0.00 | 100 | 957.6 |
| 20260830151346 | 79 | 238 | 1.0 | 5.0 | 0.00 | 0.00 | 0.00 | 100 | 957.6 |
| 20260830151246 | 79 | 241 | 2.0 | 6.0 | 0.00 | 0.00 | 0.00 | 100 | 957.6 |
| 20260830151143 | 79 | 251 | 2.0 | 6.0 | 0.00 | 0.00 | 0.00 | 100 | 957.7 |
| 20260830150940 | 79 | 265 | 1.0 | 6.0 | 0.00 | 0.00 | 0.00 | 100 | 957.8 |
| 20260830150738 | 79 | 226 | 1.0 | 6.0 | 0.00 | 0.00 | 0.00 | 100 | 957.7 |
| 20260830150637 | 80 | 238 | 1.0 | 6.0 | 0.00 | 0.00 | 0.00 | 100 | 957.7 |
| 20260830150535 | 80 | 0 | 1.0 | 5.0 | 0.00 | 0.00 | 0.00 | 100 | 957.6 |
| 20260830150332 | 79 | 243 | 1.0 | 4.0 | 0.00 | 0.00 | 0.00 | 100 | 957.8 |
| 20260830150129 | 80 | 247 | 2.0 | 6.0 | 0.00 | 0.00 | 0.00 | 100 | 957.7 |
| 20260830150030 | 80 | 250 | 2.0 | 6.0 | 0.00 | 0.00 | 0.00 | 100 | 957.7 |
| 20260830145926 | 79 | 261 | 2.0 | 6.0 | 0.00 | 0.00 | 0.00 | 100 | 957.7 |
| 20260830145723 | 79 | 0 | 1.0 | 5.0 | 0.00 | 0.00 | 0.00 | 100 | 957.7 |
| 20260830145520 | 79 | 0 | 1.0 | 5.0 | 0.00 | 0.00 | 0.00 | 100 | 957.8 |
| 20260830145420 | 79 | 212 | 2.0 | 8.0 | 0.00 | 0.00 | 0.00 | 100 | 957.7 |
| 20260830145317 | 79 | 209 | 1.0 | 8.0 | 0.00 | 0.00 | 0.00 | 100 | 957.8 |
| 20260830145114 | 79 | 252 | 2.0 | 10.0 | 0.00 | 0.00 | 0.00 | 100 | 957.7 |
| 20260830144911 | 79 | 260 | 2.0 | 10.0 | 0.00 | 0.00 | 0.00 | 100 | 957.7 |
| 20260830144810 | 79 | 257 | 2.0 | 10.0 | 0.00 | 0.00 | 0.00 | 100 | 957.7 |
| 20260830144708 | 79 | 258 | 2.0 | 10.0 | 0.00 | 0.00 | 0.00 | 100 | 957.8 |
| 20260830144505 | 79 | 240 | 1.0 | 8.0 | 0.00 | 0.00 | 0.00 | 100 | 957.8 |
| 20260830144302 | 79 | 252 | 2.0 | 8.0 | 0.00 | 0.00 | 0.00 | 100 | 957.7 |
| 20260830144201 | 79 | 257 | 2.0 | 8.0 | 0.00 | 0.00 | 0.00 | 100 | 957.8 |
| 20260830144058 | 79 | 257 | 2.0 | 8.0 | 0.00 | 0.00 | 0.00 | 100 | 957.9 |
| 20260830143855 | 79 | 0 | 1.0 | 5.0 | 0.00 | 0.00 | 0.00 | 100 | 958.0 |
| 20260830143651 | 78 | 240 | 2.0 | 9.0 | 0.00 | 0.00 | 0.00 | 100 | 957.9 |
| 20260830143445 | 78 | 223 | 2.0 | 9.0 | 0.00 | 0.00 | 0.00 | 100 | 957.9 |
| 20260830143241 | 78 | 222 | 2.0 | 7.0 | 0.00 | 0.00 | 0.00 | 100 | 957.8 |
| 20260830143039 | 78 | 182 | 1.0 | 7.0 | 0.00 | 0.00 | 0.00 | 100 | 957.8 |
| 20260830142939 | 78 | 163 | 2.0 | 7.0 | 0.00 | 0.00 | 0.00 | 100 | 957.8 |
| 20260830142836 | 78 | 163 | 3.0 | 7.0 | 0.00 | 0.00 | 0.00 | 100 | 957.8 |
| 20260830142633 | 77 | 159 | 5.0 | 9.0 | 0.00 | 0.00 | 0.00 | 100 | 957.7 |
| 20260830142430 | 77 | 158 | 7.0 | 10.0 | 0.00 | 0.00 | 0.00 | 100 | 957.7 |
| 20260830142329 | 77 | 159 | 6.0 | 10.0 | 0.00 | 0.00 | 0.00 | 100 | 957.8 |
| 20260830142227 | 77 | 160 | 5.0 | 10.0 | 0.00 | 0.00 | 0.00 | 100 | 957.8 |
| 20260830142024 | 78 | 169 | 3.0 | 10.0 | 0.00 | 0.00 | 0.00 | 100 | 957.7 |
| 20260830141821 | 78 | 199 | 3.0 | 9.0 | 0.00 | 0.00 | 0.00 | 100 | 957.7 |
| 20260830141720 | 79 | 216 | 2.0 | 8.0 | 0.00 | 0.00 | 0.00 | 100 | 957.8 |
| 20260830141618 | 79 | 221 | 2.0 | 8.0 | 0.00 | 0.00 | 0.00 | 100 | 957.8 |
| 20260830141414 | 79 | 255 | 2.0 | 8.0 | 0.00 | 0.00 | 0.00 | 100 | 957.7 |
| 20260830141211 | 80 | 243 | 1.0 | 5.0 | 0.00 | 0.00 | 0.00 | 100 | 957.7 |
| 20260830141111 | 80 | 253 | 1.0 | 5.0 | 0.00 | 0.00 | 0.00 | 100 | 957.8 |
| 20260830141009 | 80 | 228 | 1.0 | 5.0 | 0.00 | 0.00 | 0.00 | 100 | 957.8 |
| 20260830140805 | 79 | 0 | 1.0 | 5.0 | 0.00 | 0.00 | 0.00 | 100 | 957.8 |
| 20260830140602 | 78 | 170 | 3.0 | 11.0 | 0.00 | 0.00 | 0.00 | 100 | 957.9 |
| 20260830140501 | 78 | 163 | 4.0 | 11.0 | 0.00 | 0.00 | 0.00 | 100 | 957.8 |
| 20260830140359 | 78 | 161 | 4.0 | 11.0 | 0.00 | 0.00 | 0.00 | 100 | 957.9 |
| 20260830140155 | 78 | 167 | 4.0 | 9.0 | 0.00 | 0.00 | 0.00 | 100 | 957.9 |
| 20260830135952 | 79 | 0 | 1.0 | 5.0 | 0.00 | 0.00 | 0.00 | 100 | 957.9 |
| 20260830135851 | 79 | 0 | 1.0 | 4.0 | 0.00 | 0.00 | 0.00 | 100 | 958.0 |
| 20260830135748 | 79 | 0 | 1.0 | 4.0 | 0.00 | 0.00 | 0.00 | 100 | 957.9 |
| 20260830135545 | 79 | 0 | 1.0 | 8.0 | 0.00 | 0.00 | 0.00 | 100 | 957.9 |
| 20260830135342 | 79 | 209 | 2.0 | 8.0 | 0.00 | 0.00 | 0.00 | 100 | 957.9 |
| 20260830135241 | 78 | 198 | 2.0 | 8.0 | 0.00 | 0.00 | 0.00 | 100 | 957.9 |
| 20260830135139 | 79 | 209 | 2.0 | 8.0 | 0.00 | 0.00 | 0.00 | 100 | 957.8 |
| 20260830134936 | 79 | 228 | 2.0 | 7.0 | 0.00 | 0.00 | 0.00 | 100 | 957.9 |
| 20260830134733 | 79 | 219 | 2.0 | 8.0 | 0.00 | 0.00 | 0.00 | 100 | 957.9 |
| 20260830134632 | 79 | 208 | 2.0 | 8.0 | 0.00 | 0.00 | 0.00 | 100 | 957.9 |
| 20260830134530 | 79 | 213 | 2.0 | 8.0 | 0.00 | 0.00 | 0.00 | 100 | 957.8 |
| 20260830134326 | 79 | 244 | 2.0 | 6.0 | 0.00 | 0.00 | 0.00 | 100 | 957.9 |
| 20260830134123 | 78 | 241 | 2.0 | 6.0 | 0.00 | 0.00 | 0.00 | 100 | 957.9 |
| 20260830134022 | 79 | 238 | 2.0 | 8.0 | 0.00 | 0.00 | 0.00 | 100 | 958.0 |
| 20260830133920 | 79 | 226 | 2.0 | 8.0 | 0.00 | 0.00 | 0.00 | 100 | 957.9 |
| 20260830133717 | 79 | 200 | 2.0 | 8.0 | 0.00 | 0.00 | 0.00 | 100 | 957.9 |
| 20260830133514 | 79 | 181 | 2.0 | 8.0 | 0.00 | 0.00 | 0.00 | 100 | 957.9 |
| 20260830133308 | 79 | 200 | 2.0 | 8.0 | 0.00 | 0.00 | 0.00 | 100 | 958.0 |
| 20260830133106 | 78 | 0 | 2.0 | 8.0 | 0.00 | 0.00 | 0.00 | 100 | 958.0 |
| 20260830132902 | 78 | 211 | 2.0 | 7.0 | 0.00 | 0.00 | 0.00 | 100 | 958.0 |
| 20260830132802 | 78 | 225 | 1.0 | 7.0 | 0.00 | 0.00 | 0.00 | 100 | 958.0 |
| 20260830132659 | 78 | 229 | 1.0 | 7.0 | 0.00 | 0.00 | 0.00 | 100 | 958.0 |
| 20260830132456 | 78 | 234 | 1.0 | 5.0 | 0.00 | 0.00 | 0.00 | 100 | 958.1 |
| 20260830132253 | 78 | 217 | 1.0 | 6.0 | 0.00 | 0.00 | 0.00 | 100 | 958.1 |
| 20260830132153 | 78 | 218 | 1.0 | 6.0 | 0.00 | 0.00 | 0.00 | 100 | 958.0 |
| 20260830132050 | 78 | 217 | 1.0 | 6.0 | 0.00 | 0.00 | 0.00 | 100 | 958.1 |
| 20260830131848 | 78 | 0 | 1.0 | 6.0 | 0.00 | 0.00 | 0.00 | 100 | 958.1 |
| 20260830131645 | 78 | 203 | 2.0 | 6.0 | 0.00 | 0.00 | 0.00 | 100 | 958.1 |
| 20260830131544 | 78 | 192 | 2.0 | 7.0 | 0.00 | 0.00 | 0.00 | 100 | 958.1 |
| 20260830131441 | 77 | 172 | 3.0 | 9.0 | 0.00 | 0.00 | 0.00 | 100 | 958.1 |
| 20260830131238 | 77 | 161 | 5.0 | 10.0 | 0.00 | 0.00 | 0.00 | 100 | 958.1 |
| 20260830131036 | 77 | 163 | 4.0 | 10.0 | 0.00 | 0.00 | 0.00 | 100 | 958.1 |
| 20260830130935 | 77 | 155 | 3.0 | 10.0 | 0.00 | 0.00 | 0.00 | 100 | 958.0 |
| 20260830130832 | 78 | 174 | 2.0 | 7.0 | 0.00 | 0.00 | 0.00 | 100 | 958.1 |
| 20260830130629 | 78 | 257 | 1.0 | 5.0 | 0.00 | 0.00 | 0.00 | 100 | 958.1 |
| 20260830130425 | 77 | 255 | 2.0 | 5.0 | 0.00 | 0.00 | 0.00 | 100 | 958.2 |
| 20260830130325 | 77 | 259 | 2.0 | 5.0 | 0.00 | 0.00 | 0.00 | 100 | 958.2 |
| 20260830130209 | 77 | 262 | 1.0 | 5.0 | 0.00 | 0.00 | 0.00 | 100 | 958.2 |
| 20260830130006 | 77 | 0 | 1.0 | 3.0 | 0.00 | 0.00 | 0.00 | 100 | 958.1 |
| 20260830125803 | 78 | 0 | 1.0 | 3.0 | 0.00 | 0.00 | 0.00 | 100 | 958.2 |
| 20260830125559 | 78 | 232 | 1.0 | 6.0 | 0.00 | 0.00 | 0.00 | 100 | 958.2 |
| 20260830125356 | 77 | 265 | 2.0 | 6.0 | 0.00 | 0.00 | 0.00 | 100 | 958.2 |
| 20260830125153 | 77 | 304 | 3.0 | 6.0 | 0.00 | 0.00 | 0.00 | 100 | 958.2 |
| 20260830125053 | 77 | 304 | 2.0 | 6.0 | 0.00 | 0.00 | 0.00 | 100 | 958.3 |
| 20260830124950 | 77 | 293 | 2.0 | 6.0 | 0.00 | 0.00 | 0.00 | 100 | 958.3 |
| 20260830124747 | 76 | 100 | 1.0 | 3.0 | 0.00 | 0.00 | 0.00 | 100 | 958.4 |
| 20260830124543 | 75 | 87 | 2.0 | 5.0 | 0.00 | 0.00 | 0.00 | 100 | 958.3 |
| 20260830124341 | 75 | 79 | 3.0 | 5.0 | 0.00 | 0.00 | 0.00 | 100 | 958.3 |
| 20260830124139 | 75 | 2 | 3.0 | 7.0 | 0.00 | 0.00 | 0.00 | 100 | 958.2 |
| 20260830123935 | 76 | 338 | 4.0 | 7.0 | 0.00 | 0.00 | 0.00 | 100 | 958.2 |
| 20260830123835 | 77 | 354 | 3.0 | 7.0 | 0.00 | 0.00 | 0.00 | 100 | 958.3 |
| 20260830123732 | 77 | 358 | 3.0 | 7.0 | 0.00 | 0.00 | 0.00 | 100 | 958.3 |
| 20260830123529 | 77 | 0 | 3.0 | 7.0 | 0.00 | 0.00 | 0.00 | 100 | 958.3 |
| 20260830123327 | 78 | 251 | 2.0 | 5.0 | 0.00 | 0.00 | 0.00 | 100 | 958.3 |
| 20260830123225 | 78 | 234 | 2.0 | 5.0 | 0.00 | 0.00 | 0.00 | 100 | 958.3 |
| 20260830123120 | 79 | 200 | 1.0 | 5.0 | 0.00 | 0.00 | 0.00 | 100 | 958.3 |
| 20260830122917 | 78 | 165 | 2.0 | 5.0 | 0.00 | 0.00 | 0.00 | 100 | 958.4 |
| 20260830122714 | 77 | 159 | 2.0 | 7.0 | 0.00 | 0.00 | 0.00 | 100 | 958.3 |
| 20260830122613 | 77 | 159 | 3.0 | 7.0 | 0.00 | 0.00 | 0.00 | 100 | 958.4 |
| 20260830122510 | 77 | 160 | 4.0 | 11.0 | 0.00 | 0.00 | 0.00 | 100 | 958.4 |
| 20260830122308 | 77 | 162 | 4.0 | 11.0 | 0.00 | 0.00 | 0.00 | 100 | 958.3 |
| 20260830122105 | 77 | 191 | 2.0 | 11.0 | 0.00 | 0.00 | 0.00 | 100 | 958.4 |
| 20260830122004 | 79 | 197 | 1.0 | 7.0 | 0.00 | 0.00 | 0.00 | 100 | 958.5 |
| 20260830121902 | 79 | 0 | 1.0 | 4.0 | 0.00 | 0.00 | 0.00 | 100 | 958.4 |
| 20260830121659 | 78 | 0 | 1.0 | 4.0 | 0.00 | 0.00 | 0.00 | 100 | 958.4 |
| 20260830121456 | 77 | 150 | 1.0 | 4.0 | 0.00 | 0.00 | 0.00 | 100 | 958.4 |
| 20260830121355 | 77 | 154 | 2.0 | 4.0 | 0.00 | 0.00 | 0.00 | 100 | 958.5 |
| 20260830121252 | 78 | 165 | 2.0 | 4.0 | 0.00 | 0.00 | 0.00 | 100 | 958.4 |
| 20260830121049 | 77 | 164 | 2.0 | 5.0 | 0.00 | 0.00 | 0.00 | 100 | 958.4 |
| 20260830120846 | 78 | 160 | 1.0 | 5.0 | 0.00 | 0.00 | 0.00 | 100 | 958.5 |
| 20260830120745 | 78 | 0 | 1.0 | 5.0 | 0.00 | 0.00 | 0.00 | 100 | 958.4 |
| 20260830120643 | 79 | 0 | 1.0 | 3.0 | 0.00 | 0.00 | 0.00 | 100 | 958.5 |
| 20260830120439 | 79 | 0 | 1.0 | 3.0 | 0.00 | 0.00 | 0.00 | 100 | 958.5 |
| 20260830120236 | 78 | 0 | 1.0 | 5.0 | 0.00 | 0.00 | 0.00 | 100 | 958.5 |
| 20260830120136 | 79 | 225 | 1.0 | 5.0 | 0.00 | 0.00 | 0.00 | 100 | 958.5 |
| 20260830120033 | 79 | 223 | 1.0 | 5.0 | 0.00 | 0.00 | 0.00 | 100 | 958.5 |
| 20260830115830 | 78 | 234 | 1.0 | 6.0 | 0.00 | 0.00 | 0.00 | 100 | 958.5 |
| 20260830115626 | 77 | 210 | 2.0 | 7.0 | 0.00 | 0.00 | 0.00 | 100 | 958.5 |
| 20260830115525 | 77 | 195 | 1.0 | 7.0 | 0.00 | 0.00 | 0.00 | 100 | 958.5 |
| 20260830115423 | 77 | 185 | 1.0 | 7.0 | 0.00 | 0.00 | 0.00 | 100 | 958.5 |
| 20260830115220 | 77 | 0 | 1.0 | 5.0 | 0.00 | 0.00 | 0.00 | 100 | 958.6 |
| 20260830115017 | 77 | 233 | 1.0 | 5.0 | 0.00 | 0.00 | 0.00 | 100 | 958.5 |
| 20260830114916 | 77 | 230 | 1.0 | 5.0 | 0.00 | 0.00 | 0.00 | 100 | 958.5 |
| 20260830114814 | 77 | 231 | 1.0 | 5.0 | 0.00 | 0.00 | 0.00 | 100 | 958.6 |
| 20260830114611 | 78 | 0 | 1.0 | 5.0 | 0.00 | 0.00 | 0.00 | 100 | 958.6 |
| 20260830114408 | 78 | 0 | 1.0 | 4.0 | 0.00 | 0.00 | 0.00 | 100 | 958.6 |
| 20260830114204 | 78 | 0 | 1.0 | 4.0 | 0.00 | 0.00 | 0.00 | 100 | 958.6 |
| 20260830114001 | 77 | 0 | 1.0 | 4.0 | 0.00 | 0.00 | 0.00 | 100 | 958.6 |
| 20260830113759 | 78 | 0 | 1.0 | 4.0 | 0.00 | 0.00 | 0.00 | 100 | 958.5 |
| 20260830113658 | 78 | 0 | 0.0 | 4.0 | 0.00 | 0.00 | 0.00 | 100 | 958.6 |
| 20260830113555 | 78 | 0 | 0.0 | 4.0 | 0.00 | 0.00 | 0.00 | 100 | 958.6 |
| 20260830113351 | 77 | 0 | 1.0 | 4.0 | 0.00 | 0.00 | 0.00 | 100 | 958.6 |
| 20260830113148 | 77 | 243 | 2.0 | 8.0 | 0.00 | 0.00 | 0.00 | 100 | 958.7 |
| 20260830113048 | 77 | 249 | 1.0 | 8.0 | 0.00 | 0.00 | 0.00 | 100 | 958.6 |
| 20260830112941 | 76 | 244 | 1.0 | 8.0 | 0.00 | 0.00 | 0.00 | 100 | 958.8 |
| 20260830112738 | 76 | 0 | 1.0 | 4.0 | 0.00 | 0.00 | 0.00 | 100 | 958.7 |
| 20260830112535 | 77 | 222 | 1.0 | 6.0 | 0.00 | 0.00 | 0.00 | 100 | 958.8 |
| 20260830112434 | 77 | 224 | 2.0 | 6.0 | 0.00 | 0.00 | 0.00 | 100 | 958.7 |
| 20260830112332 | 77 | 232 | 2.0 | 6.0 | 0.00 | 0.00 | 0.00 | 100 | 958.6 |
| 20260830112129 | 77 | 245 | 2.0 | 6.0 | 0.00 | 0.00 | 0.00 | 100 | 958.7 |
| 20260830111926 | 76 | 237 | 2.0 | 5.0 | 0.00 | 0.00 | 0.00 | 100 | 958.8 |
| 20260830111826 | 77 | 0 | 1.0 | 5.0 | 0.00 | 0.00 | 0.00 | 100 | 958.8 |
| 20260830111723 | 76 | 0 | 1.0 | 5.0 | 0.00 | 0.00 | 0.00 | 100 | 958.8 |
| 20260830111520 | 75 | 0 | 1.0 | 3.0 | 0.00 | 0.00 | 0.00 | 100 | 958.9 |
| 20260830111316 | 75 | 224 | 2.0 | 9.0 | 0.00 | 0.00 | 0.00 | 100 | 958.8 |
| 20260830111114 | 76 | 251 | 2.0 | 9.0 | 0.00 | 0.00 | 0.00 | 100 | 958.9 |
| 20260830110911 | 76 | 242 | 2.0 | 9.0 | 0.00 | 0.00 | 0.00 | 100 | 958.8 |
| 20260830110707 | 77 | 233 | 2.0 | 8.0 | 0.00 | 0.00 | 0.00 | 100 | 958.8 |
| 20260830110504 | 77 | 239 | 2.0 | 8.0 | 0.00 | 0.00 | 0.00 | 100 | 958.9 |
| 20260830110301 | 77 | 248 | 2.0 | 8.0 | 0.00 | 0.00 | 0.00 | 100 | 958.9 |
| 20260830110058 | 77 | 226 | 1.0 | 7.0 | 0.00 | 0.00 | 0.00 | 100 | 958.9 |
| 20260830105957 | 77 | 220 | 1.0 | 7.0 | 0.00 | 0.00 | 0.00 | 100 | 958.9 |
| 20260830105854 | 77 | 257 | 2.0 | 9.0 | 0.00 | 0.00 | 0.00 | 100 | 958.9 |
| 20260830105651 | 77 | 265 | 5.0 | 11.0 | 0.00 | 0.00 | 0.00 | 100 | 959.0 |
| 20260830105449 | 75 | 275 | 6.0 | 11.0 | 0.00 | 0.00 | 0.00 | 100 | 958.9 |
| 20260830105348 | 75 | 273 | 6.0 | 11.0 | 0.00 | 0.00 | 0.00 | 100 | 959.0 |
| 20260830105245 | 75 | 278 | 6.0 | 13.0 | 0.00 | 0.00 | 0.00 | 100 | 958.9 |
| 20260830105042 | 75 | 267 | 4.0 | 13.0 | 0.00 | 0.00 | 0.00 | 100 | 959.0 |
| 20260830104838 | 76 | 235 | 2.0 | 10.0 | 0.00 | 0.00 | 0.00 | 100 | 959.0 |
| 20260830104635 | 76 | 218 | 2.0 | 8.0 | 0.00 | 0.00 | 0.00 | 100 | 958.9 |
| 20260830104432 | 77 | 216 | 2.0 | 8.0 | 0.00 | 0.00 | 0.00 | 100 | 958.9 |
| 20260830104229 | 77 | 222 | 2.0 | 8.0 | 0.00 | 0.00 | 0.00 | 100 | 958.7 |
| 20260830104128 | 77 | 216 | 2.0 | 8.0 | 0.00 | 0.00 | 0.00 | 100 | 958.9 |
| 20260830104026 | 77 | 0 | 1.0 | 8.0 | 0.00 | 0.00 | 0.00 | 100 | 959.0 |
| 20260830103824 | 77 | 0 | 1.0 | 8.0 | 0.00 | 0.00 | 0.00 | 100 | 958.9 |
| 20260830103621 | 77 | 0 | 1.0 | 4.0 | 0.00 | 0.00 | 0.00 | 100 | 959.0 |
| 20260830103417 | 77 | 0 | 2.0 | 5.0 | 0.00 | 0.00 | 0.00 | 100 | 959.1 |
| 20260830103215 | 77 | 0 | 2.0 | 7.0 | 0.00 | 0.00 | 0.00 | 100 | 959.0 |
| 20260830103011 | 77 | 201 | 2.0 | 8.0 | 0.00 | 0.00 | 0.00 | 100 | 959.0 |
| 20260830102911 | 77 | 207 | 2.0 | 8.0 | 0.00 | 0.00 | 0.00 | 100 | 959.0 |
| 20260830102805 | 77 | 206 | 2.0 | 8.0 | 0.00 | 0.00 | 0.00 | 100 | 959.0 |
| 20260830102602 | 77 | 0 | 2.0 | 8.0 | 0.00 | 0.00 | 0.00 | 100 | 959.0 |
| 20260830102359 | 77 | 0 | 1.0 | 6.0 | 0.00 | 0.00 | 0.00 | 100 | 959.1 |
| 20260830102245 | 76 | 212 | 2.0 | 6.0 | 0.00 | 0.00 | 0.00 | 100 | 959.0 |
| 20260830102143 | 76 | 242 | 2.0 | 6.0 | 0.00 | 0.00 | 0.00 | 100 | 959.0 |
| 20260830101940 | 76 | 271 | 2.0 | 6.0 | 0.00 | 0.00 | 0.00 | 100 | 958.9 |
| 20260830101737 | 75 | 257 | 2.0 | 8.0 | 0.00 | 0.00 | 0.00 | 100 | 959.1 |
| 20260830101636 | 77 | 237 | 1.0 | 8.0 | 0.00 | 0.00 | 0.00 | 100 | 959.1 |
| 20260830101534 | 77 | 228 | 1.0 | 8.0 | 0.00 | 0.00 | 0.00 | 100 | 959.1 |
| 20260830101331 | 76 | 0 | 1.0 | 7.0 | 0.00 | 0.00 | 0.00 | 100 | 959.1 |
| 20260830101128 | 76 | 179 | 2.0 | 8.0 | 0.00 | 0.00 | 0.00 | 100 | 959.1 |
| 20260830101027 | 76 | 178 | 2.0 | 8.0 | 0.00 | 0.00 | 0.00 | 100 | 959.0 |
| 20260830100925 | 76 | 187 | 2.0 | 8.0 | 0.00 | 0.00 | 0.00 | 100 | 959.1 |
| 20260830100721 | 76 | 228 | 1.0 | 5.0 | 0.00 | 0.00 | 0.00 | 100 | 959.1 |
| 20260830100518 | 76 | 236 | 2.0 | 10.0 | 0.00 | 0.00 | 0.00 | 100 | 959.3 |
| 20260830100316 | 75 | 243 | 3.0 | 11.0 | 0.00 | 0.00 | 0.00 | 100 | 959.2 |
| 20260830100112 | 75 | 241 | 2.0 | 11.0 | 0.00 | 0.00 | 0.00 | 100 | 959.1 |
| 20260830095909 | 76 | 0 | 1.0 | 5.0 | 0.00 | 0.00 | 0.00 | 100 | 959.2 |
| 20260830095706 | 76 | 0 | 1.0 | 6.0 | 0.00 | 0.00 | 0.00 | 100 | 959.2 |
| 20260830095503 | 75 | 218 | 1.0 | 6.0 | 0.00 | 0.00 | 0.00 | 100 | 959.2 |
| 20260830095300 | 75 | 0 | 1.0 | 6.0 | 0.00 | 0.00 | 0.00 | 100 | 959.3 |
| 20260830095159 | 75 | 0 | 1.0 | 6.0 | 0.00 | 0.00 | 0.00 | 100 | 959.3 |
| 20260830095056 | 75 | 0 | 1.0 | 5.0 | 0.00 | 0.00 | 0.00 | 100 | 959.3 |
| 20260830094853 | 75 | 0 | 2.0 | 6.0 | 0.00 | 0.00 | 0.00 | 100 | 959.3 |
| 20260830094650 | 75 | 223 | 1.0 | 6.0 | 0.00 | 0.00 | 0.00 | 100 | 959.2 |
| 20260830094550 | 75 | 216 | 1.0 | 6.0 | 0.00 | 0.00 | 0.00 | 100 | 959.3 |
| 20260830094447 | 75 | 216 | 1.0 | 6.0 | 0.00 | 0.00 | 0.00 | 100 | 959.3 |
| 20260830094244 | 75 | 0 | 2.0 | 6.0 | 0.00 | 0.00 | 0.00 | 100 | 959.3 |
| 20260830094041 | 74 | 224 | 2.0 | 9.0 | 0.00 | 0.00 | 0.00 | 100 | 959.3 |
| 20260830093940 | 74 | 231 | 2.0 | 9.0 | 0.00 | 0.00 | 0.00 | 100 | 959.3 |
| 20260830093838 | 74 | 223 | 2.0 | 9.0 | 0.00 | 0.00 | 0.00 | 100 | 959.3 |
| 20260830093634 | 74 | 229 | 2.0 | 13.0 | 0.00 | 0.00 | 0.00 | 100 | 959.3 |
| 20260830093431 | 74 | 223 | 2.0 | 13.0 | 0.00 | 0.00 | 0.00 | 100 | 959.3 |
| 20260830093331 | 74 | 228 | 2.0 | 13.0 | 0.00 | 0.00 | 0.00 | 100 | 959.2 |
| 20260830093227 | 74 | 249 | 2.0 | 10.0 | 0.00 | 0.00 | 0.00 | 100 | 959.3 |
| 20260830093024 | 74 | 238 | 3.0 | 10.0 | 0.00 | 0.00 | 0.00 | 100 | 959.2 |
| 20260830092821 | 74 | 206 | 3.0 | 9.0 | 0.00 | 0.00 | 0.00 | 100 | 959.2 |
| 20260830092720 | 74 | 208 | 2.0 | 9.0 | 0.00 | 0.00 | 0.00 | 100 | 959.3 |
| 20260830092615 | 74 | 203 | 2.0 | 9.0 | 0.00 | 0.00 | 0.00 | 100 | 959.2 |
| 20260830092412 | 74 | 218 | 2.0 | 7.0 | 0.00 | 0.00 | 0.00 | 100 | 959.3 |
| 20260830092209 | 74 | 212 | 2.0 | 8.0 | 0.00 | 0.00 | 0.00 | 100 | 959.2 |
| 20260830092108 | 74 | 217 | 2.0 | 11.0 | 0.00 | 0.00 | 0.00 | 100 | 959.2 |
| 20260830092005 | 74 | 229 | 2.0 | 11.0 | 0.00 | 0.00 | 0.00 | 100 | 959.3 |
| 20260830091802 | 74 | 240 | 2.0 | 8.0 | 0.00 | 0.00 | 0.00 | 100 | 959.3 |
| 20260830091558 | 74 | 234 | 2.0 | 10.0 | 0.00 | 0.00 | 0.00 | 100 | 959.3 |
| 20260830091458 | 74 | 237 | 2.0 | 10.0 | 0.00 | 0.00 | 0.00 | 100 | 959.3 |
| 20260830091356 | 74 | 242 | 3.0 | 10.0 | 0.00 | 0.00 | 0.00 | 100 | 959.2 |
| 20260830091152 | 73 | 232 | 3.0 | 10.0 | 0.00 | 0.00 | 0.00 | 100 | 959.3 |
| 20260830090949 | 73 | 221 | 2.0 | 10.0 | 0.00 | 0.00 | 0.00 | 100 | 959.2 |
| 20260830090848 | 73 | 230 | 3.0 | 10.0 | 0.00 | 0.00 | 0.00 | 100 | 959.2 |
| 20260830090746 | 73 | 238 | 3.0 | 10.0 | 0.00 | 0.00 | 0.00 | 100 | 959.2 |
| 20260830090542 | 73 | 237 | 2.0 | 10.0 | 0.00 | 0.00 | 0.00 | 100 | 959.2 |
| 20260830090339 | 73 | 231 | 3.0 | 10.0 | 0.00 | 0.00 | 0.00 | 100 | 959.2 |
| 20260830090136 | 73 | 241 | 4.0 | 12.0 | 0.00 | 0.00 | 0.00 | 100 | 959.2 |
| 20260830085933 | 73 | 239 | 3.0 | 12.0 | 0.00 | 0.00 | 0.00 | 100 | 959.1 |
| 20260830085730 | 73 | 237 | 2.0 | 12.0 | 0.00 | 0.00 | 0.00 | 100 | 959.2 |
| 20260830085527 | 73 | 241 | 3.0 | 12.0 | 0.00 | 0.00 | 0.00 | 100 | 959.2 |
| 20260830085324 | 72 | 237 | 3.0 | 9.0 | 0.00 | 0.00 | 0.00 | 100 | 959.2 |
| 20260830085121 | 73 | 241 | 4.0 | 11.0 | 0.00 | 0.00 | 0.00 | 100 | 959.4 |
| 20260830084918 | 72 | 243 | 4.0 | 13.0 | 0.00 | 0.00 | 0.00 | 100 | 959.2 |
| 20260830084715 | 73 | 227 | 2.0 | 13.0 | 0.00 | 0.00 | 0.00 | 100 | 959.3 |
| 20260830084512 | 73 | 222 | 2.0 | 10.0 | 0.00 | 0.00 | 0.00 | 100 | 959.3 |
| 20260830084412 | 73 | 225 | 2.0 | 8.0 | 0.00 | 0.00 | 0.00 | 100 | 959.3 |
| 20260830084309 | 73 | 222 | 2.0 | 9.0 | 0.00 | 0.00 | 0.00 | 100 | 959.3 |
| 20260830084106 | 72 | 237 | 3.0 | 13.0 | 0.00 | 0.00 | 0.00 | 100 | 959.3 |
| 20260830083903 | 72 | 247 | 3.0 | 13.0 | 0.00 | 0.00 | 0.00 | 100 | 959.4 |
| 20260830083802 | 72 | 259 | 4.0 | 16.0 | 0.00 | 0.00 | 0.00 | 100 | 959.4 |
| 20260830083700 | 72 | 258 | 4.0 | 16.0 | 0.00 | 0.00 | 0.00 | 100 | 959.3 |
| 20260830083456 | 71 | 250 | 4.0 | 16.0 | 0.00 | 0.00 | 0.00 | 100 | 959.3 |
| 20260830083253 | 71 | 248 | 4.0 | 14.0 | 0.00 | 0.00 | 0.00 | 100 | 959.4 |
| 20260830083152 | 71 | 265 | 4.0 | 14.0 | 0.00 | 0.00 | 0.00 | 100 | 959.4 |
| 20260830083050 | 71 | 278 | 4.0 | 14.0 | 0.00 | 0.00 | 0.00 | 100 | 959.3 |
| 20260830082848 | 68 | 315 | 4.0 | 13.0 | 0.00 | 0.00 | 0.00 | 100 | 959.4 |
| 20260830082644 | 68 | 5 | 1.0 | 4.0 | 0.00 | 0.00 | 0.00 | 100 | 959.4 |
| 20260830082543 | 68 | 352 | 1.0 | 3.0 | 0.00 | 0.00 | 0.00 | 100 | 959.4 |
| 20260830082437 | 68 | 330 | 1.0 | 3.0 | 0.00 | 0.00 | 0.00 | 100 | 959.5 |
| 20260830082235 | 66 | 342 | 4.0 | 6.0 | 0.00 | 0.00 | 0.00 | 100 | 959.4 |
| 20260830082031 | 66 | 352 | 4.0 | 6.0 | 0.00 | 0.00 | 0.00 | 100 | 959.3 |
| 20260830081930 | 66 | 354 | 4.0 | 5.0 | 0.00 | 0.00 | 0.00 | 100 | 959.3 |
| 20260830081828 | 66 | 351 | 3.0 | 5.0 | 0.00 | 0.00 | 0.00 | 100 | 959.4 |
| 20260830081625 | 66 | 355 | 3.0 | 4.0 | 0.00 | 0.00 | 0.00 | 100 | 959.5 |
| 20260830081422 | 65 | 6 | 3.0 | 4.0 | 0.00 | 0.00 | 0.00 | 100 | 959.3 |
| 20260830081321 | 65 | 9 | 3.0 | 4.0 | 0.00 | 0.00 | 0.00 | 100 | 959.4 |
| 20260830081218 | 65 | 16 | 3.0 | 4.0 | 0.00 | 0.00 | 0.00 | 100 | 959.5 |
| 20260830081015 | 65 | 18 | 3.0 | 4.0 | 0.00 | 0.00 | 0.00 | 100 | 959.4 |
| 20260830080811 | 65 | 358 | 3.0 | 6.0 | 0.00 | 0.00 | 0.00 | 100 | 959.4 |
| 20260830080711 | 65 | 356 | 3.0 | 6.0 | 0.00 | 0.00 | 0.00 | 100 | 959.4 |
| 20260830080608 | 65 | 3 | 4.0 | 6.0 | 0.00 | 0.00 | 0.00 | 100 | 959.5 |
| 20260830080405 | 65 | 21 | 3.0 | 5.0 | 0.00 | 0.00 | 0.00 | 100 | 959.4 |
| 20260830080202 | 65 | 5 | 4.0 | 7.0 | 0.00 | 0.00 | 0.00 | 100 | 959.4 |
| 20260830075959 | 65 | 0 | 4.0 | 7.0 | 0.00 | 0.00 | 0.00 | 100 | 959.4 |
| 20260830075755 | 65 | 3 | 4.0 | 6.0 | 0.00 | 0.00 | 0.00 | 100 | 959.3 |
| 20260830075552 | 66 | 1 | 4.0 | 6.0 | 0.00 | 0.00 | 0.00 | 100 | 959.3 |
| 20260830075451 | 65 | 359 | 4.0 | 6.0 | 0.00 | 0.00 | 0.00 | 100 | 959.3 |
| 20260830075255 | 65 | 359 | 4.0 | 6.0 | 0.00 | 0.00 | 0.00 | 100 | 959.4 |
| 20260830075052 | 66 | 27 | 3.0 | 5.0 | 0.00 | 0.00 | 0.00 | 100 | 959.3 |
| 20260830074848 | 66 | 13 | 3.0 | 5.0 | 0.00 | 0.00 | 0.00 | 100 | 959.3 |
| 20260830074645 | 65 | 355 | 4.0 | 6.0 | 0.00 | 0.00 | 0.00 | 100 | 959.3 |
| 20260830074442 | 65 | 4 | 2.0 | 6.0 | 0.00 | 0.00 | 0.00 | 100 | 959.3 |
| 20260830074342 | 66 | 7 | 2.0 | 4.0 | 0.00 | 0.00 | 0.00 | 100 | 959.3 |
| 20260830074239 | 66 | 23 | 2.0 | 3.0 | 0.00 | 0.00 | 0.00 | 100 | 959.2 |
| 20260830074036 | 66 | 74 | 1.0 | 3.0 | 0.00 | 0.00 | 0.00 | 100 | 959.2 |
| 20260830073833 | 66 | 53 | 2.0 | 3.0 | 0.00 | 0.00 | 0.00 | 100 | 959.3 |
| 20260830073719 | 65 | 26 | 1.0 | 3.0 | 0.00 | 0.00 | 0.00 | 100 | 959.2 |
| 20260830073617 | 65 | 13 | 1.0 | 3.0 | 0.00 | 0.00 | 0.00 | 100 | 959.3 |
| 20260830073413 | 65 | 12 | 1.0 | 2.0 | 0.00 | 0.00 | 0.00 | 100 | 959.3 |
| 20260830073210 | 64 | 0 | 1.0 | 2.0 | 0.00 | 0.00 | 0.00 | 100 | 959.4 |
| 20260830073111 | 64 | 300 | 1.0 | 2.0 | 0.00 | 0.00 | 0.00 | 100 | 959.5 |
| 20260830073007 | 63 | 294 | 1.0 | 2.0 | 0.00 | 0.00 | 0.00 | 100 | 959.4 |
| 20260830072804 | 63 | 302 | 1.0 | 4.0 | 0.00 | 0.00 | 0.00 | 100 | 959.5 |
| 20260830072601 | 62 | 326 | 2.0 | 4.0 | 0.00 | 0.00 | 0.00 | 100 | 959.3 |
| 20260830072500 | 62 | 330 | 2.0 | 4.0 | 0.00 | 0.00 | 0.00 | 100 | 959.3 |
| 20260830072357 | 62 | 340 | 2.0 | 4.0 | 0.00 | 0.00 | 0.00 | 100 | 959.3 |
| 20260830072155 | 62 | 356 | 1.0 | 4.0 | 0.00 | 0.00 | 0.00 | 100 | 959.5 |
| 20260830071952 | 62 | 353 | 2.0 | 4.0 | 0.00 | 0.00 | 0.00 | 100 | 959.4 |
| 20260830071851 | 61 | 348 | 2.0 | 4.0 | 0.00 | 0.00 | 0.00 | 100 | 959.4 |
| 20260830071749 | 61 | 345 | 2.0 | 4.0 | 0.00 | 0.00 | 0.00 | 100 | 959.3 |
| 20260830071545 | 62 | 327 | 1.0 | 3.0 | 0.00 | 0.00 | 0.00 | 100 | 959.4 |
| 20260830071342 | 61 | 332 | 2.0 | 4.0 | 0.00 | 0.00 | 0.00 | 100 | 959.3 |
| 20260830071140 | 62 | 338 | 2.0 | 4.0 | 0.00 | 0.00 | 0.00 | 100 | 959.3 |
| 20260830070937 | 61 | 322 | 1.0 | 3.0 | 0.00 | 0.00 | 0.00 | 100 | 959.3 |
| 20260830070734 | 61 | 312 | 2.0 | 4.0 | 0.00 | 0.00 | 0.00 | 100 | 959.3 |
| 20260830070633 | 61 | 311 | 2.0 | 4.0 | 0.00 | 0.00 | 0.00 | 100 | 959.3 |
| 20260830070531 | 61 | 329 | 2.0 | 4.0 | 0.00 | 0.00 | 0.00 | 100 | 959.2 |
| 20260830070329 | 60 | 9 | 2.0 | 4.0 | 0.00 | 0.00 | 0.00 | 100 | 959.3 |
| 20260830070125 | 60 | 335 | 2.0 | 4.0 | 0.00 | 0.00 | 0.00 | 100 | 959.2 |
| 20260830065921 | 60 | 336 | 2.0 | 4.0 | 0.00 | 0.00 | 0.00 | 100 | 959.2 |
| 20260830065718 | 59 | 351 | 3.0 | 5.0 | 0.00 | 0.00 | 0.00 | 100 | 959.2 |
| 20260830065515 | 59 | 347 | 3.0 | 5.0 | 0.00 | 0.00 | 0.00 | 100 | 959.2 |
| 20260830065414 | 59 | 347 | 3.0 | 5.0 | 0.00 | 0.00 | 0.00 | 100 | 959.2 |
| 20260830065312 | 59 | 349 | 3.0 | 4.0 | 0.00 | 0.00 | 0.00 | 100 | 959.2 |
| 20260830065109 | 59 | 346 | 2.0 | 3.0 | 0.00 | 0.00 | 0.00 | 100 | 959.3 |
| 20260830064906 | 59 | 345 | 3.0 | 4.0 | 0.00 | 0.00 | 0.00 | 100 | 959.2 |
| 20260830064805 | 59 | 349 | 3.0 | 4.0 | 0.00 | 0.00 | 0.00 | 100 | 959.2 |
| 20260830064702 | 59 | 356 | 3.0 | 5.0 | 0.00 | 0.00 | 0.00 | 100 | 959.2 |
| 20260830064459 | 59 | 0 | 3.0 | 5.0 | 0.00 | 0.00 | 0.00 | 100 | 959.1 |
| 20260830064257 | 59 | 1 | 3.0 | 4.0 | 0.00 | 0.00 | 0.00 | 100 | 959.2 |
| 20260830064156 | 59 | 3 | 2.0 | 4.0 | 0.00 | 0.00 | 0.00 | 100 | 959.2 |
| 20260830064054 | 60 | 0 | 2.0 | 4.0 | 0.00 | 0.00 | 0.00 | 100 | 959.2 |
| 20260830063851 | 60 | 356 | 1.0 | 3.0 | 0.00 | 0.00 | 0.00 | 100 | 959.3 |
| 20260830063647 | 60 | 337 | 1.0 | 3.0 | 0.00 | 0.00 | 0.00 | 100 | 959.3 |
| 20260830063445 | 60 | 0 | 1.0 | 3.0 | 0.00 | 0.00 | 0.00 | 100 | 959.3 |
| 20260830063242 | 61 | 0 | 1.0 | 3.0 | 0.00 | 0.00 | 0.00 | 100 | 959.2 |
| 20260830063039 | 59 | 0 | 0.0 | 3.0 | 0.00 | 0.00 | 0.00 | 100 | 959.3 |
| 20260830062938 | 59 | 0 | 0.0 | 3.0 | 0.00 | 0.00 | 0.00 | 100 | 959.3 |
| 20260830062836 | 58 | 0 | 0.0 | 2.0 | 0.00 | 0.00 | 0.00 | 100 | 959.4 |
| 20260830062632 | 57 | 0 | 0.0 | 2.0 | 0.00 | 0.00 | 0.00 | 100 | 959.4 |
| 20260830062429 | 56 | 349 | 1.0 | 2.0 | 0.00 | 0.00 | 0.00 | 100 | 959.2 |
| 20260830062328 | 56 | 340 | 1.0 | 3.0 | 0.00 | 0.00 | 0.00 | 100 | 959.2 |
| 20260830062226 | 56 | 336 | 1.0 | 3.0 | 0.00 | 0.00 | 0.00 | 100 | 959.2 |
| 20260830062024 | 56 | 348 | 1.0 | 3.0 | 0.00 | 0.00 | 0.00 | 100 | 959.2 |
| 20260830061821 | 56 | 0 | 0.0 | 1.0 | 0.00 | 0.00 | 0.00 | 100 | 959.3 |
| 20260830061720 | 56 | 0 | 0.0 | 2.0 | 0.00 | 0.00 | 0.00 | 100 | 959.2 |
| 20260830061618 | 55 | 0 | 1.0 | 2.0 | 0.00 | 0.00 | 0.00 | 100 | 959.2 |
| 20260830061415 | 55 | 353 | 2.0 | 2.0 | 0.00 | 0.00 | 0.00 | 100 | 959.3 |
| 20260830061211 | 55 | 359 | 2.0 | 4.0 | 0.00 | 0.00 | 0.00 | 100 | 959.2 |
| 20260830061110 | 55 | 357 | 2.0 | 4.0 | 0.00 | 0.00 | 0.00 | 100 | 959.3 |
| 20260830061008 | 55 | 353 | 1.0 | 4.0 | 0.00 | 0.00 | 0.00 | 100 | 959.3 |
| 20260830060805 | 55 | 340 | 1.0 | 4.0 | 0.00 | 0.00 | 0.00 | 100 | 959.2 |
| 20260830060602 | 55 | 356 | 1.0 | 2.0 | 0.00 | 0.00 | 0.00 | 100 | 959.2 |
| 20260830060501 | 55 | 13 | 1.0 | 3.0 | 0.00 | 0.00 | 0.00 | 100 | 959.2 |
| 20260830060359 | 55 | 28 | 1.0 | 3.0 | 0.00 | 0.00 | 0.00 | 100 | 959.1 |
| 20260830060156 | 55 | 44 | 1.0 | 3.0 | 0.00 | 0.00 | 0.00 | 100 | 959.2 |
| 20260830055953 | 55 | 42 | 2.0 | 3.0 | 0.00 | 0.00 | 0.00 | 100 | 959.1 |
| 20260830055853 | 55 | 38 | 2.0 | 3.0 | 0.00 | 0.00 | 0.00 | 100 | 959.1 |
| 20260830055750 | 55 | 26 | 2.0 | 3.0 | 0.00 | 0.00 | 0.00 | 100 | 959.2 |
| 20260830055547 | 55 | 5 | 2.0 | 3.0 | 0.00 | 0.00 | 0.00 | 100 | 959.2 |
| 20260830055344 | 55 | 0 | 2.0 | 3.0 | 0.00 | 0.00 | 0.00 | 100 | 959.2 |
| 20260830055244 | 55 | 357 | 2.0 | 3.0 | 0.00 | 0.00 | 0.00 | 100 | 959.2 |
| 20260830055142 | 55 | 353 | 2.0 | 3.0 | 0.00 | 0.00 | 0.00 | 100 | 959.2 |
| 20260830054939 | 55 | 347 | 2.0 | 2.0 | 0.00 | 0.00 | 0.00 | 100 | 959.2 |
| 20260830054736 | 55 | 351 | 2.0 | 3.0 | 0.00 | 0.00 | 0.00 | 100 | 959.1 |
| 20260830054533 | 55 | 348 | 2.0 | 3.0 | 0.00 | 0.00 | 0.00 | 100 | 959.1 |
| 20260830054330 | 55 | 342 | 2.0 | 3.0 | 0.00 | 0.00 | 0.00 | 100 | 959.2 |
| 20260830054127 | 55 | 343 | 2.0 | 3.0 | 0.00 | 0.00 | 0.00 | 100 | 959.2 |
| 20260830054026 | 55 | 347 | 2.0 | 2.0 | 0.00 | 0.00 | 0.00 | 100 | 959.1 |
| 20260830053924 | 55 | 354 | 1.0 | 3.0 | 0.00 | 0.00 | 0.00 | 100 | 959.1 |
| 20260830053721 | 56 | 0 | 1.0 | 2.0 | 0.00 | 0.00 | 0.00 | 100 | 959.2 |
| 20260830053517 | 55 | 7 | 1.0 | 2.0 | 0.00 | 0.00 | 0.00 | 100 | 959.2 |
| 20260830053416 | 55 | 27 | 1.0 | 2.0 | 0.00 | 0.00 | 0.00 | 100 | 959.2 |
| 20260830053314 | 56 | 61 | 1.0 | 2.0 | 0.00 | 0.00 | 0.00 | 100 | 959.2 |
| 20260830053111 | 55 | 62 | 1.0 | 2.0 | 0.00 | 0.00 | 0.00 | 100 | 959.2 |
| 20260830052908 | 56 | 50 | 0.0 | 2.0 | 0.00 | 0.00 | 0.00 | 100 | 959.1 |
| 20260830052808 | 56 | 0 | 0.0 | 1.0 | 0.00 | 0.00 | 0.00 | 100 | 959.2 |
| 20260830052705 | 56 | 0 | 0.0 | 1.0 | 0.00 | 0.00 | 0.00 | 100 | 959.1 |
| 20260830052502 | 56 | 0 | 0.0 | 1.0 | 0.00 | 0.00 | 0.00 | 100 | 959.2 |
| 20260830052259 | 57 | 0 | 0.0 | 2.0 | 0.00 | 0.00 | 0.00 | 100 | 959.1 |
| 20260830052158 | 57 | 0 | 0.0 | 2.0 | 0.00 | 0.00 | 0.00 | 100 | 959.1 |
| 20260830052055 | 57 | 0 | 0.0 | 2.0 | 0.00 | 0.00 | 0.00 | 100 | 959.1 |
| 20260830051852 | 57 | 0 | 0.0 | 1.0 | 0.00 | 0.00 | 0.00 | 100 | 959.0 |
| 20260830051649 | 56 | 0 | 0.0 | 1.0 | 0.00 | 0.00 | 0.00 | 100 | 959.1 |
| 20260830051549 | 56 | 0 | 0.0 | 1.0 | 0.00 | 0.00 | 0.00 | 100 | 959.1 |
| 20260830051446 | 56 | 0 | 0.0 | 1.0 | 0.00 | 0.00 | 0.00 | 100 | 959.2 |
| 20260830051244 | 55 | 0 | 0.0 | 1.0 | 0.00 | 0.00 | 0.00 | 100 | 959.1 |
| 20260830051042 | 55 | 0 | 0.0 | 2.0 | 0.00 | 0.00 | 0.00 | 100 | 959.2 |
| 20260830050839 | 55 | 0 | 0.0 | 2.0 | 0.00 | 0.00 | 0.00 | 100 | 959.2 |
| 20260830050636 | 54 | 333 | 1.0 | 1.0 | 0.00 | 0.00 | 0.00 | 100 | 959.2 |
| 20260830050433 | 54 | 336 | 1.0 | 2.0 | 0.00 | 0.00 | 0.00 | 100 | 959.1 |
| 20260830050332 | 54 | 337 | 1.0 | 2.0 | 0.00 | 0.00 | 0.00 | 100 | 959.2 |
| 20260830050230 | 54 | 343 | 1.0 | 2.0 | 0.00 | 0.00 | 0.00 | 100 | 959.2 |
| 20260830050027 | 55 | 0 | 1.0 | 2.0 | 0.00 | 0.00 | 0.00 | 100 | 959.2 |
| 20260830045811 | 55 | 0 | 0.0 | 2.0 | 0.00 | 0.00 | 0.00 | 100 | 959.2 |
| 20260830045710 | 55 | 0 | 0.0 | 2.0 | 0.00 | 0.00 | 0.00 | 100 | 959.2 |
| 20260830045608 | 55 | 129 | 0.0 | 2.0 | 0.00 | 0.00 | 0.00 | 100 | 959.2 |
| 20260830045404 | 55 | 0 | 0.0 | 2.0 | 0.00 | 0.00 | 0.00 | 100 | 959.2 |
| 20260830045201 | 55 | 0 | 0.0 | 1.0 | 0.00 | 0.00 | 0.00 | 100 | 959.2 |
| 20260830045100 | 55 | 130 | 0.0 | 1.0 | 0.00 | 0.00 | 0.00 | 100 | 959.3 |
| 20260830044958 | 54 | 135 | 1.0 | 1.0 | 0.00 | 0.00 | 0.00 | 100 | 959.1 |
| 20260830044755 | 54 | 0 | 0.0 | 1.0 | 0.00 | 0.00 | 0.00 | 100 | 959.2 |
| 20260830044552 | 54 | 0 | 0.0 | 1.0 | 0.00 | 0.00 | 0.00 | 100 | 959.1 |
| 20260830044451 | 54 | 0 | 0.0 | 1.0 | 0.00 | 0.00 | 0.00 | 100 | 959.1 |
| 20260830044349 | 54 | 0 | 0.0 | 1.0 | 0.00 | 0.00 | 0.00 | 100 | 959.1 |
| 20260830044146 | 54 | 0 | 0.0 | 1.0 | 0.00 | 0.00 | 0.00 | 100 | 959.1 |
| 20260830043942 | 54 | 0 | 0.0 | 1.0 | 0.00 | 0.00 | 0.00 | 100 | 959.2 |
| 20260830043841 | 53 | 0 | 0.0 | 1.0 | 0.00 | 0.00 | 0.00 | 100 | 959.2 |
| 20260830043740 | 53 | 0 | 0.0 | 1.0 | 0.00 | 0.00 | 0.00 | 100 | 959.2 |
| 20260830043537 | 53 | 0 | 0.0 | 1.0 | 0.00 | 0.00 | 0.00 | 100 | 959.2 |
| 20260830043334 | 53 | 0 | 0.0 | 1.0 | 0.00 | 0.00 | 0.00 | 100 | 959.2 |
| 20260830043233 | 52 | 0 | 0.0 | 1.0 | 0.00 | 0.00 | 0.00 | 100 | 959.2 |
| 20260830043130 | 52 | 0 | 0.0 | 1.0 | 0.00 | 0.00 | 0.00 | 100 | 959.2 |
| 20260830042928 | 52 | 0 | 0.0 | 1.0 | 0.00 | 0.00 | 0.00 | 100 | 959.3 |
| 20260830042724 | 52 | 0 | 0.0 | 1.0 | 0.00 | 0.00 | 0.00 | 100 | 959.2 |
| 20260830042624 | 52 | 0 | 0.0 | 1.0 | 0.00 | 0.00 | 0.00 | 100 | 959.3 |
| 20260830042521 | 52 | 0 | 0.0 | 1.0 | 0.00 | 0.00 | 0.00 | 100 | 959.3 |
| 20260830042318 | 52 | 0 | 0.0 | 1.0 | 0.00 | 0.00 | 0.00 | 100 | 959.2 |
| 20260830042115 | 51 | 0 | 0.0 | 1.0 | 0.00 | 0.00 | 0.00 | 100 | 959.1 |
| 20260830041912 | 51 | 0 | 0.0 | 1.0 | 0.00 | 0.00 | 0.00 | 100 | 959.2 |
| 20260830041709 | 51 | 102 | 0.0 | 1.0 | 0.00 | 0.00 | 0.00 | 100 | 959.2 |
| 20260830041506 | 51 | 0 | 0.0 | 1.0 | 0.00 | 0.00 | 0.00 | 100 | 959.2 |
| 20260830041406 | 51 | 0 | 0.0 | 1.0 | 0.00 | 0.00 | 0.00 | 100 | 959.2 |
| 20260830041303 | 51 | 0 | 0.0 | 1.0 | 0.00 | 0.00 | 0.00 | 100 | 959.2 |
| 20260830041100 | 51 | 0 | 0.0 | 0.0 | 0.00 | 0.00 | 0.00 | 100 | 959.2 |
| 20260830040856 | 51 | 0 | 0.0 | 0.0 | 0.00 | 0.00 | 0.00 | 100 | 959.2 |
| 20260830040757 | 51 | 0 | 0.0 | 0.0 | 0.00 | 0.00 | 0.00 | 100 | 959.2 |
| 20260830040653 | 51 | 0 | 0.0 | 0.0 | 0.00 | 0.00 | 0.00 | 100 | 959.2 |
| 20260830040451 | 51 | 0 | 0.0 | 0.0 | 0.00 | 0.00 | 0.00 | 100 | 959.3 |
| 20260830040247 | 51 | 0 | 0.0 | 1.0 | 0.00 | 0.00 | 0.00 | 100 | 959.2 |
| 20260830040147 | 51 | 0 | 0.0 | 1.0 | 0.00 | 0.00 | 0.00 | 100 | 959.3 |
| 20260830040044 | 51 | 0 | 0.0 | 1.0 | 0.00 | 0.00 | 0.00 | 100 | 959.2 |
| 20260830035841 | 51 | 0 | 0.0 | 1.0 | 0.00 | 0.00 | 0.00 | 100 | 959.2 |
| 20260830035639 | 51 | 0 | 0.0 | 1.0 | 0.00 | 0.00 | 0.00 | 100 | 959.2 |
| 20260830035538 | 51 | 0 | 0.0 | 0.0 | 0.00 | 0.00 | 0.00 | 100 | 959.2 |
| 20260830035436 | 51 | 0 | 0.0 | 0.0 | 0.00 | 0.00 | 0.00 | 100 | 959.2 |
| 20260830035232 | 51 | 0 | 0.0 | 0.0 | 0.00 | 0.00 | 0.00 | 100 | 959.3 |
| 20260830035029 | 51 | 0 | 0.0 | 0.0 | 0.00 | 0.00 | 0.00 | 100 | 959.2 |
| 20260830034928 | 51 | 0 | 0.0 | 0.0 | 0.00 | 0.00 | 0.00 | 100 | 959.1 |
| 20260830034826 | 51 | 0 | 0.0 | 0.0 | 0.00 | 0.00 | 0.00 | 100 | 959.3 |
| 20260830034622 | 51 | 0 | 0.0 | 0.0 | 0.00 | 0.00 | 0.00 | 100 | 959.1 |
| 20260830034419 | 51 | 0 | 0.0 | 0.0 | 0.00 | 0.00 | 0.00 | 100 | 959.2 |
| 20260830034319 | 51 | 0 | 0.0 | 0.0 | 0.00 | 0.00 | 0.00 | 100 | 959.2 |
| 20260830034216 | 51 | 0 | 0.0 | 0.0 | 0.00 | 0.00 | 0.00 | 100 | 959.2 |
| 20260830034013 | 51 | 0 | 0.0 | 1.0 | 0.00 | 0.00 | 0.00 | 100 | 959.2 |
| 20260830033810 | 51 | 0 | 0.0 | 1.0 | 0.00 | 0.00 | 0.00 | 100 | 959.2 |
| 20260830033710 | 51 | 305 | 1.0 | 1.0 | 0.00 | 0.00 | 0.00 | 100 | 959.1 |
| 20260830033608 | 51 | 314 | 1.0 | 2.0 | 0.00 | 0.00 | 0.00 | 100 | 959.1 |
| 20260830033404 | 51 | 325 | 1.0 | 2.0 | 0.00 | 0.00 | 0.00 | 100 | 959.2 |
| 20260830033201 | 51 | 328 | 1.0 | 2.0 | 0.00 | 0.00 | 0.00 | 100 | 959.2 |
| 20260830033100 | 51 | 329 | 1.0 | 2.0 | 0.00 | 0.00 | 0.00 | 100 | 959.2 |
| 20260830032958 | 51 | 333 | 1.0 | 2.0 | 0.00 | 0.00 | 0.00 | 100 | 959.3 |
| 20260830032755 | 51 | 335 | 1.0 | 2.0 | 0.00 | 0.00 | 0.00 | 100 | 959.2 |
| 20260830032552 | 51 | 0 | 0.0 | 1.0 | 0.00 | 0.00 | 0.00 | 100 | 959.2 |
| 20260830032349 | 51 | 0 | 0.0 | 1.0 | 0.00 | 0.00 | 0.00 | 100 | 959.2 |
| 20260830032146 | 51 | 0 | 0.0 | 1.0 | 0.00 | 0.00 | 0.00 | 100 | 959.3 |
| 20260830031942 | 51 | 0 | 0.0 | 1.0 | 0.00 | 0.00 | 0.00 | 100 | 959.2 |
| 20260830031841 | 51 | 0 | 0.0 | 1.0 | 0.00 | 0.00 | 0.00 | 100 | 959.2 |
| 20260830031739 | 51 | 0 | 0.0 | 1.0 | 0.00 | 0.00 | 0.00 | 100 | 959.2 |
| 20260830031536 | 51 | 0 | 0.0 | 1.0 | 0.00 | 0.00 | 0.00 | 100 | 959.2 |
| 20260830031333 | 51 | 0 | 0.0 | 1.0 | 0.00 | 0.00 | 0.00 | 100 | 959.2 |
| 20260830031232 | 51 | 0 | 0.0 | 1.0 | 0.00 | 0.00 | 0.00 | 100 | 959.2 |
| 20260830031130 | 51 | 0 | 0.0 | 1.0 | 0.00 | 0.00 | 0.00 | 100 | 959.2 |
| 20260830030927 | 51 | 0 | 0.0 | 1.0 | 0.00 | 0.00 | 0.00 | 100 | 959.2 |
| 20260830030724 | 51 | 0 | 0.0 | 1.0 | 0.00 | 0.00 | 0.00 | 100 | 959.2 |
| 20260830030624 | 51 | 0 | 0.0 | 1.0 | 0.00 | 0.00 | 0.00 | 100 | 959.3 |
| 20260830030521 | 51 | 0 | 0.0 | 1.0 | 0.00 | 0.00 | 0.00 | 100 | 959.3 |
| 20260830030318 | 51 | 305 | 1.0 | 1.0 | 0.00 | 0.00 | 0.00 | 100 | 959.2 |
| 20260830030114 | 51 | 299 | 1.0 | 2.0 | 0.00 | 0.00 | 0.00 | 100 | 959.3 |
| 20260830030014 | 51 | 0 | 0.0 | 2.0 | 0.00 | 0.00 | 0.00 | 100 | 959.3 |
| 20260830025912 | 51 | 0 | 0.0 | 2.0 | 0.00 | 0.00 | 0.00 | 100 | 959.2 |
| 20260830025709 | 51 | 0 | 0.0 | 1.0 | 0.00 | 0.00 | 0.00 | 100 | 959.2 |
| 20260830025505 | 51 | 0 | 0.0 | 1.0 | 0.00 | 0.00 | 0.00 | 100 | 959.3 |
| 20260830025404 | 51 | 0 | 0.0 | 1.0 | 0.00 | 0.00 | 0.00 | 100 | 959.2 |
| 20260830025302 | 51 | 0 | 0.0 | 1.0 | 0.00 | 0.00 | 0.00 | 100 | 959.3 |
| 20260830025059 | 51 | 0 | 0.0 | 1.0 | 0.00 | 0.00 | 0.00 | 100 | 959.3 |
| 20260830024856 | 51 | 0 | 0.0 | 1.0 | 0.00 | 0.00 | 0.00 | 100 | 959.3 |
| 20260830024756 | 51 | 0 | 0.0 | 1.0 | 0.00 | 0.00 | 0.00 | 100 | 959.2 |
| 20260830024654 | 51 | 298 | 1.0 | 2.0 | 0.00 | 0.00 | 0.00 | 100 | 959.3 |
| 20260830024450 | 51 | 302 | 1.0 | 2.0 | 0.00 | 0.00 | 0.00 | 100 | 959.2 |
| 20260830024246 | 51 | 304 | 1.0 | 2.0 | 0.00 | 0.00 | 0.00 | 100 | 959.2 |
| 20260830024146 | 51 | 313 | 1.0 | 2.0 | 0.00 | 0.00 | 0.00 | 100 | 959.3 |
| 20260830024043 | 51 | 316 | 1.0 | 2.0 | 0.00 | 0.00 | 0.00 | 100 | 959.3 |
| 20260830023841 | 51 | 323 | 2.0 | 2.0 | 0.00 | 0.00 | 0.00 | 100 | 959.2 |
| 20260830023637 | 51 | 323 | 2.0 | 2.0 | 0.00 | 0.00 | 0.00 | 100 | 959.2 |
| 20260830023536 | 51 | 320 | 2.0 | 2.0 | 0.00 | 0.00 | 0.00 | 100 | 959.2 |
| 20260830023434 | 51 | 321 | 2.0 | 2.0 | 0.00 | 0.00 | 0.00 | 100 | 959.1 |
| 20260830023230 | 51 | 313 | 1.0 | 2.0 | 0.00 | 0.00 | 0.00 | 100 | 959.3 |
| 20260830023027 | 51 | 309 | 1.0 | 2.0 | 0.00 | 0.00 | 0.00 | 100 | 959.2 |
| 20260830022926 | 51 | 303 | 1.0 | 1.0 | 0.00 | 0.00 | 0.00 | 100 | 959.2 |
| 20260830022823 | 51 | 307 | 1.0 | 1.0 | 0.00 | 0.00 | 0.00 | 100 | 959.2 |
| 20260830022620 | 51 | 294 | 0.0 | 1.0 | 0.00 | 0.00 | 0.00 | 100 | 959.2 |
| 20260830022417 | 51 | 0 | 0.0 | 2.0 | 0.00 | 0.00 | 0.00 | 100 | 959.2 |
| 20260830022317 | 51 | 0 | 0.0 | 2.0 | 0.00 | 0.00 | 0.00 | 100 | 959.3 |
| 20260830022215 | 51 | 0 | 1.0 | 2.0 | 0.00 | 0.00 | 0.00 | 100 | 959.3 |
| 20260830022011 | 51 | 325 | 1.0 | 2.0 | 0.00 | 0.00 | 0.00 | 100 | 959.3 |
| 20260830021758 | 51 | 305 | 1.0 | 2.0 | 0.00 | 0.00 | 0.00 | 100 | 959.2 |
| 20260830021555 | 51 | 301 | 1.0 | 2.0 | 0.00 | 0.00 | 0.00 | 100 | 959.2 |
| 20260830021352 | 51 | 321 | 1.0 | 2.0 | 0.00 | 0.00 | 0.00 | 100 | 959.2 |
| 20260830021149 | 51 | 323 | 1.0 | 2.0 | 0.00 | 0.00 | 0.00 | 100 | 959.3 |
| 20260830021048 | 51 | 322 | 1.0 | 2.0 | 0.00 | 0.00 | 0.00 | 100 | 959.3 |
| 20260830020946 | 51 | 317 | 1.0 | 2.0 | 0.00 | 0.00 | 0.00 | 100 | 959.2 |
| 20260830020742 | 51 | 335 | 1.0 | 2.0 | 0.00 | 0.00 | 0.00 | 100 | 959.4 |
| 20260830020540 | 51 | 9 | 1.0 | 2.0 | 0.00 | 0.00 | 0.00 | 100 | 959.4 |
| 20260830020439 | 51 | 17 | 2.0 | 2.0 | 0.00 | 0.00 | 0.00 | 100 | 959.4 |
| 20260830020337 | 51 | 17 | 2.0 | 2.0 | 0.00 | 0.00 | 0.00 | 100 | 959.3 |
| 20260830020134 | 51 | 8 | 2.0 | 2.0 | 0.00 | 0.00 | 0.00 | 100 | 959.2 |
| 20260830015930 | 51 | 5 | 2.0 | 3.0 | 0.00 | 0.00 | 0.00 | 100 | 959.2 |
| 20260830015830 | 51 | 2 | 2.0 | 3.0 | 0.00 | 0.00 | 0.00 | 100 | 959.2 |
| 20260830015727 | 51 | 356 | 2.0 | 3.0 | 0.00 | 0.00 | 0.00 | 100 | 959.3 |
| 20260830015524 | 51 | 335 | 2.0 | 2.0 | 0.00 | 0.00 | 0.00 | 100 | 959.2 |
| 20260830015321 | 51 | 322 | 2.0 | 2.0 | 0.00 | 0.00 | 0.00 | 100 | 959.3 |
| 20260830015221 | 51 | 314 | 2.0 | 3.0 | 0.00 | 0.00 | 0.00 | 100 | 959.3 |
| 20260830015118 | 52 | 310 | 2.0 | 3.0 | 0.00 | 0.00 | 0.00 | 100 | 959.3 |
| 20260830014915 | 52 | 307 | 2.0 | 3.0 | 0.00 | 0.00 | 0.00 | 100 | 959.3 |
| 20260830014712 | 52 | 308 | 1.0 | 2.0 | 0.00 | 0.00 | 0.00 | 100 | 959.3 |